<?xml version="1.0" encoding="UTF-8" standalone="no" ?><gpx xmlns="http://www.topografix.com/GPX/1/1" xmlns:gpxx="http://www.garmin.com/xmlschemas/GpxExtensions/v3" xmlns:wptx1="http://www.garmin.com/xmlschemas/WaypointExtension/v1" xmlns:gpxtpx="http://www.garmin.com/xmlschemas/TrackPointExtension/v1" creator="GuideVTT.com" version="1.1" xmlns:xsi="http://www.w3.org/2001/XMLSchema-instance" xsi:schemaLocation="http://www.topografix.com/GPX/1/1 http://www.topografix.com/GPX/1/1/gpx.xsd http://www.garmin.com/xmlschemas/GpxExtensions/v3 http://www8.garmin.com/xmlschemas/GpxExtensionsv3.xsd http://www.garmin.com/xmlschemas/WaypointExtension/v1 http://www8.garmin.com/xmlschemas/WaypointExtensionv1.xsd http://www.garmin.com/xmlschemas/TrackPointExtension/v1 http://www.garmin.com/xmlschemas/TrackPointExtensionv1.xsd">
<metadata><link href="http://www.garmin.com"><text>Garmin International</text></link><time>2013-06-22T15:13:50Z</time></metadata>
<trk><name>heremence_altitudes.gpx</name><extensions><gpxx:TrackExtension><gpxx:DisplayColor>Cyan</gpxx:DisplayColor></gpxx:TrackExtension></extensions><trkseg>
<trkpt lat="46.180466" lon="7.404863"><ele>1231</ele><time>1970-01-01T00:00:00Z</time></trkpt>
<trkpt lat="46.179980" lon="7.404746"><ele>1232</ele><time>1970-01-01T00:00:00Z</time></trkpt>
<trkpt lat="46.179846" lon="7.404928"><ele>1226</ele><time>1970-01-01T00:00:00Z</time></trkpt>
<trkpt lat="46.179009" lon="7.404475"><ele>1226</ele><time>1970-01-01T00:00:00Z</time></trkpt>
<trkpt lat="46.178343" lon="7.404281"><ele>1226</ele><time>1970-01-01T00:00:00Z</time></trkpt>
<trkpt lat="46.177434" lon="7.404075"><ele>1225</ele><time>1970-01-01T00:00:00Z</time></trkpt>
<trkpt lat="46.176922" lon="7.403803"><ele>1222</ele><time>1970-01-01T00:00:00Z</time></trkpt>
<trkpt lat="46.176319" lon="7.403454"><ele>1216</ele><time>1970-01-01T00:00:00Z</time></trkpt>
<trkpt lat="46.175887" lon="7.403143"><ele>1211</ele><time>1970-01-01T00:00:00Z</time></trkpt>
<trkpt lat="46.175473" lon="7.403415"><ele>1203</ele><time>1970-01-01T00:00:00Z</time></trkpt>
<trkpt lat="46.175311" lon="7.403454"><ele>1198</ele><time>1970-01-01T00:00:00Z</time></trkpt>
<trkpt lat="46.175230" lon="7.402911"><ele>1206</ele><time>1970-01-01T00:00:00Z</time></trkpt>
<trkpt lat="46.174978" lon="7.402354"><ele>1206</ele><time>1970-01-01T00:00:00Z</time></trkpt>
<trkpt lat="46.174834" lon="7.402082"><ele>1207</ele><time>1970-01-01T00:00:00Z</time></trkpt>
<trkpt lat="46.174402" lon="7.401513"><ele>1209</ele><time>1970-01-01T00:00:00Z</time></trkpt>
<trkpt lat="46.174195" lon="7.401396"><ele>1206</ele><time>1970-01-01T00:00:00Z</time></trkpt>
<trkpt lat="46.173997" lon="7.400516"><ele>1219</ele><time>1970-01-01T00:00:00Z</time></trkpt>
<trkpt lat="46.173646" lon="7.400361"><ele>1220</ele><time>1970-01-01T00:00:00Z</time></trkpt>
<trkpt lat="46.173376" lon="7.400335"><ele>1225</ele><time>1970-01-01T00:00:00Z</time></trkpt>
<trkpt lat="46.173107" lon="7.400750"><ele>1213</ele><time>1970-01-01T00:00:00Z</time></trkpt>
<trkpt lat="46.172981" lon="7.401009"><ele>1206</ele><time>1970-01-01T00:00:00Z</time></trkpt>
<trkpt lat="46.172324" lon="7.401333"><ele>1207</ele><time>1970-01-01T00:00:00Z</time></trkpt>
<trkpt lat="46.171982" lon="7.401359"><ele>1199</ele><time>1970-01-01T00:00:00Z</time></trkpt>
<trkpt lat="46.171667" lon="7.401165"><ele>1198</ele><time>1970-01-01T00:00:00Z</time></trkpt>
<trkpt lat="46.171622" lon="7.400673"><ele>1203</ele><time>1970-01-01T00:00:00Z</time></trkpt>
<trkpt lat="46.171352" lon="7.400246"><ele>1207</ele><time>1970-01-01T00:00:00Z</time></trkpt>
<trkpt lat="46.170902" lon="7.400039"><ele>1207</ele><time>1970-01-01T00:00:00Z</time></trkpt>
<trkpt lat="46.169994" lon="7.399198"><ele>1220</ele><time>1970-01-01T00:00:00Z</time></trkpt>
<trkpt lat="46.169723" lon="7.398434"><ele>1235</ele><time>1970-01-01T00:00:00Z</time></trkpt>
<trkpt lat="46.169409" lon="7.398409"><ele>1232</ele><time>1970-01-01T00:00:00Z</time></trkpt>
<trkpt lat="46.169157" lon="7.398150"><ele>1239</ele><time>1970-01-01T00:00:00Z</time></trkpt>
<trkpt lat="46.168923" lon="7.397982"><ele>1239</ele><time>1970-01-01T00:00:00Z</time></trkpt>
<trkpt lat="46.168743" lon="7.397904"><ele>1238</ele><time>1970-01-01T00:00:00Z</time></trkpt>
<trkpt lat="46.168680" lon="7.397632"><ele>1246</ele><time>1970-01-01T00:00:00Z</time></trkpt>
<trkpt lat="46.168140" lon="7.397192"><ele>1247</ele><time>1970-01-01T00:00:00Z</time></trkpt>
<trkpt lat="46.167870" lon="7.397154"><ele>1245</ele><time>1970-01-01T00:00:00Z</time></trkpt>
<trkpt lat="46.167645" lon="7.396947"><ele>1250</ele><time>1970-01-01T00:00:00Z</time></trkpt>
<trkpt lat="46.167249" lon="7.396960"><ele>1248</ele><time>1970-01-01T00:00:00Z</time></trkpt>
<trkpt lat="46.166880" lon="7.396688"><ele>1253</ele><time>1970-01-01T00:00:00Z</time></trkpt>
<trkpt lat="46.166241" lon="7.396534"><ele>1258</ele><time>1970-01-01T00:00:00Z</time></trkpt>
<trkpt lat="46.167546" lon="7.396442"><ele>1271</ele><time>1970-01-01T00:00:00Z</time></trkpt>
<trkpt lat="46.166430" lon="7.396210"><ele>1272</ele><time>1970-01-01T00:00:00Z</time></trkpt>
<trkpt lat="46.165935" lon="7.396327"><ele>1271</ele><time>1970-01-01T00:00:00Z</time></trkpt>
<trkpt lat="46.165378" lon="7.396327"><ele>1265</ele><time>1970-01-01T00:00:00Z</time></trkpt>
<trkpt lat="46.165171" lon="7.396146"><ele>1263</ele><time>1970-01-01T00:00:00Z</time></trkpt>
<trkpt lat="46.164640" lon="7.395266"><ele>1260</ele><time>1970-01-01T00:00:00Z</time></trkpt>
<trkpt lat="46.164487" lon="7.394878"><ele>1262</ele><time>1970-01-01T00:00:00Z</time></trkpt>
<trkpt lat="46.164289" lon="7.394736"><ele>1265</ele><time>1970-01-01T00:00:00Z</time></trkpt>
<trkpt lat="46.164136" lon="7.394787"><ele>1266</ele><time>1970-01-01T00:00:00Z</time></trkpt>
<trkpt lat="46.163956" lon="7.395085"><ele>1261</ele><time>1970-01-01T00:00:00Z</time></trkpt>
<trkpt lat="46.163731" lon="7.395150"><ele>1264</ele><time>1970-01-01T00:00:00Z</time></trkpt>
<trkpt lat="46.163488" lon="7.395474"><ele>1260</ele><time>1970-01-01T00:00:00Z</time></trkpt>
<trkpt lat="46.163219" lon="7.395681"><ele>1258</ele><time>1970-01-01T00:00:00Z</time></trkpt>
<trkpt lat="46.162679" lon="7.395708"><ele>1259</ele><time>1970-01-01T00:00:00Z</time></trkpt>
<trkpt lat="46.162130" lon="7.395501"><ele>1264</ele><time>1970-01-01T00:00:00Z</time></trkpt>
<trkpt lat="46.161986" lon="7.395449"><ele>1263</ele><time>1970-01-01T00:00:00Z</time></trkpt>
<trkpt lat="46.161779" lon="7.395152"><ele>1269</ele><time>1970-01-01T00:00:00Z</time></trkpt>
<trkpt lat="46.161356" lon="7.395049"><ele>1267</ele><time>1970-01-01T00:00:00Z</time></trkpt>
<trkpt lat="46.160933" lon="7.394635"><ele>1263</ele><time>1970-01-01T00:00:00Z</time></trkpt>
<trkpt lat="46.160411" lon="7.394014"><ele>1268</ele><time>1970-01-01T00:00:00Z</time></trkpt>
<trkpt lat="46.159997" lon="7.393846"><ele>1270</ele><time>1970-01-01T00:00:00Z</time></trkpt>
<trkpt lat="46.159422" lon="7.393846"><ele>1275</ele><time>1970-01-01T00:00:00Z</time></trkpt>
<trkpt lat="46.159071" lon="7.393626"><ele>1278</ele><time>1970-01-01T00:00:00Z</time></trkpt>
<trkpt lat="46.158828" lon="7.393329"><ele>1282</ele><time>1970-01-01T00:00:00Z</time></trkpt>
<trkpt lat="46.158621" lon="7.393044"><ele>1289</ele><time>1970-01-01T00:00:00Z</time></trkpt>
<trkpt lat="46.158801" lon="7.392953"><ele>1290</ele><time>1970-01-01T00:00:00Z</time></trkpt>
<trkpt lat="46.159098" lon="7.393122"><ele>1293</ele><time>1970-01-01T00:00:00Z</time></trkpt>
<trkpt lat="46.159422" lon="7.393341"><ele>1290</ele><time>1970-01-01T00:00:00Z</time></trkpt>
<trkpt lat="46.159799" lon="7.393367"><ele>1292</ele><time>1970-01-01T00:00:00Z</time></trkpt>
<trkpt lat="46.160015" lon="7.393328"><ele>1293</ele><time>1970-01-01T00:00:00Z</time></trkpt>
<trkpt lat="46.159961" lon="7.393224"><ele>1299</ele><time>1970-01-01T00:00:00Z</time></trkpt>
<trkpt lat="46.159727" lon="7.393212"><ele>1301</ele><time>1970-01-01T00:00:00Z</time></trkpt>
<trkpt lat="46.159439" lon="7.393160"><ele>1298</ele><time>1970-01-01T00:00:00Z</time></trkpt>
<trkpt lat="46.159116" lon="7.392914"><ele>1297</ele><time>1970-01-01T00:00:00Z</time></trkpt>
<trkpt lat="46.158747" lon="7.392656"><ele>1297</ele><time>1970-01-01T00:00:00Z</time></trkpt>
<trkpt lat="46.158351" lon="7.392591"><ele>1305</ele><time>1970-01-01T00:00:00Z</time></trkpt>
<trkpt lat="46.158018" lon="7.392799"><ele>1298</ele><time>1970-01-01T00:00:00Z</time></trkpt>
<trkpt lat="46.157793" lon="7.392812"><ele>1297</ele><time>1970-01-01T00:00:00Z</time></trkpt>
<trkpt lat="46.155715" lon="7.391882"><ele>1304</ele><time>1970-01-01T00:00:00Z</time></trkpt>
<trkpt lat="46.155346" lon="7.391740"><ele>1303</ele><time>1970-01-01T00:00:00Z</time></trkpt>
<trkpt lat="46.155409" lon="7.391299"><ele>1319</ele><time>1970-01-01T00:00:00Z</time></trkpt>
<trkpt lat="46.155930" lon="7.391286"><ele>1329</ele><time>1970-01-01T00:00:00Z</time></trkpt>
<trkpt lat="46.156353" lon="7.391389"><ele>1335</ele><time>1970-01-01T00:00:00Z</time></trkpt>
<trkpt lat="46.157397" lon="7.391712"><ele>1348</ele><time>1970-01-01T00:00:00Z</time></trkpt>
<trkpt lat="46.158045" lon="7.391673"><ele>1353</ele><time>1970-01-01T00:00:00Z</time></trkpt>
<trkpt lat="46.158413" lon="7.391206"><ele>1368</ele><time>1970-01-01T00:00:00Z</time></trkpt>
<trkpt lat="46.158620" lon="7.390611"><ele>1385</ele><time>1970-01-01T00:00:00Z</time></trkpt>
<trkpt lat="46.158556" lon="7.389653"><ele>1395</ele><time>1970-01-01T00:00:00Z</time></trkpt>
<trkpt lat="46.158376" lon="7.388941"><ele>1411</ele><time>1970-01-01T00:00:00Z</time></trkpt>
<trkpt lat="46.158601" lon="7.388293"><ele>1398</ele><time>1970-01-01T00:00:00Z</time></trkpt>
<trkpt lat="46.158988" lon="7.388177"><ele>1400</ele><time>1970-01-01T00:00:00Z</time></trkpt>
<trkpt lat="46.159113" lon="7.387930"><ele>1404</ele><time>1970-01-01T00:00:00Z</time></trkpt>
<trkpt lat="46.158951" lon="7.387814"><ele>1407</ele><time>1970-01-01T00:00:00Z</time></trkpt>
<trkpt lat="46.159095" lon="7.387555"><ele>1410</ele><time>1970-01-01T00:00:00Z</time></trkpt>
<trkpt lat="46.159347" lon="7.387516"><ele>1411</ele><time>1970-01-01T00:00:00Z</time></trkpt>
<trkpt lat="46.159401" lon="7.387309"><ele>1418</ele><time>1970-01-01T00:00:00Z</time></trkpt>
<trkpt lat="46.159797" lon="7.387425"><ele>1417</ele><time>1970-01-01T00:00:00Z</time></trkpt>
<trkpt lat="46.160166" lon="7.387813"><ele>1424</ele><time>1970-01-01T00:00:00Z</time></trkpt>
<trkpt lat="46.160481" lon="7.388279"><ele>1428</ele><time>1970-01-01T00:00:00Z</time></trkpt>
<trkpt lat="46.160850" lon="7.388563"><ele>1439</ele><time>1970-01-01T00:00:00Z</time></trkpt>
<trkpt lat="46.161219" lon="7.389003"><ele>1440</ele><time>1970-01-01T00:00:00Z</time></trkpt>
<trkpt lat="46.161345" lon="7.389145"><ele>1440</ele><time>1970-01-01T00:00:00Z</time></trkpt>
<trkpt lat="46.161363" lon="7.388705"><ele>1447</ele><time>1970-01-01T00:00:00Z</time></trkpt>
<trkpt lat="46.161237" lon="7.388317"><ele>1452</ele><time>1970-01-01T00:00:00Z</time></trkpt>
<trkpt lat="46.161011" lon="7.387903"><ele>1455</ele><time>1970-01-01T00:00:00Z</time></trkpt>
<trkpt lat="46.160885" lon="7.387463"><ele>1457</ele><time>1970-01-01T00:00:00Z</time></trkpt>
<trkpt lat="46.160885" lon="7.387230"><ele>1460</ele><time>1970-01-01T00:00:00Z</time></trkpt>
<trkpt lat="46.161416" lon="7.387669"><ele>1467</ele><time>1970-01-01T00:00:00Z</time></trkpt>
<trkpt lat="46.161857" lon="7.388031"><ele>1468</ele><time>1970-01-01T00:00:00Z</time></trkpt>
<trkpt lat="46.162532" lon="7.388264"><ele>1472</ele><time>1970-01-01T00:00:00Z</time></trkpt>
<trkpt lat="46.163099" lon="7.388250"><ele>1476</ele><time>1970-01-01T00:00:00Z</time></trkpt>
<trkpt lat="46.162622" lon="7.387837"><ele>1482</ele><time>1970-01-01T00:00:00Z</time></trkpt>
<trkpt lat="46.162289" lon="7.387397"><ele>1490</ele><time>1970-01-01T00:00:00Z</time></trkpt>
<trkpt lat="46.161955" lon="7.386659"><ele>1494</ele><time>1970-01-01T00:00:00Z</time></trkpt>
<trkpt lat="46.161766" lon="7.386167"><ele>1501</ele><time>1970-01-01T00:00:00Z</time></trkpt>
<trkpt lat="46.161307" lon="7.385831"><ele>1507</ele><time>1970-01-01T00:00:00Z</time></trkpt>
<trkpt lat="46.160768" lon="7.385612"><ele>1514</ele><time>1970-01-01T00:00:00Z</time></trkpt>
<trkpt lat="46.160498" lon="7.385534"><ele>1516</ele><time>1970-01-01T00:00:00Z</time></trkpt>
<trkpt lat="46.159967" lon="7.385470"><ele>1522</ele><time>1970-01-01T00:00:00Z</time></trkpt>
<trkpt lat="46.159634" lon="7.385742"><ele>1512</ele><time>1970-01-01T00:00:00Z</time></trkpt>
<trkpt lat="46.159112" lon="7.385769"><ele>1507</ele><time>1970-01-01T00:00:00Z</time></trkpt>
<trkpt lat="46.158771" lon="7.385588"><ele>1501</ele><time>1970-01-01T00:00:00Z</time></trkpt>
<trkpt lat="46.158599" lon="7.385083"><ele>1511</ele><time>1970-01-01T00:00:00Z</time></trkpt>
<trkpt lat="46.158086" lon="7.384255"><ele>1517</ele><time>1970-01-01T00:00:00Z</time></trkpt>
<trkpt lat="46.157646" lon="7.384592"><ele>1514</ele><time>1970-01-01T00:00:00Z</time></trkpt>
<trkpt lat="46.157223" lon="7.384800"><ele>1520</ele><time>1970-01-01T00:00:00Z</time></trkpt>
<trkpt lat="46.156989" lon="7.385745"><ele>1508</ele><time>1970-01-01T00:00:00Z</time></trkpt>
<trkpt lat="46.156701" lon="7.385305"><ele>1519</ele><time>1970-01-01T00:00:00Z</time></trkpt>
<trkpt lat="46.155631" lon="7.385008"><ele>1519</ele><time>1970-01-01T00:00:00Z</time></trkpt>
<trkpt lat="46.155316" lon="7.385125"><ele>1519</ele><time>1970-01-01T00:00:00Z</time></trkpt>
<trkpt lat="46.154344" lon="7.384893"><ele>1524</ele><time>1970-01-01T00:00:00Z</time></trkpt>
<trkpt lat="46.153589" lon="7.384946"><ele>1520</ele><time>1970-01-01T00:00:00Z</time></trkpt>
<trkpt lat="46.153130" lon="7.385088"><ele>1516</ele><time>1970-01-01T00:00:00Z</time></trkpt>
<trkpt lat="46.152617" lon="7.385115"><ele>1518</ele><time>1970-01-01T00:00:00Z</time></trkpt>
<trkpt lat="46.152294" lon="7.385115"><ele>1522</ele><time>1970-01-01T00:00:00Z</time></trkpt>
<trkpt lat="46.151916" lon="7.385400"><ele>1525</ele><time>1970-01-01T00:00:00Z</time></trkpt>
<trkpt lat="46.151313" lon="7.385608"><ele>1518</ele><time>1970-01-01T00:00:00Z</time></trkpt>
<trkpt lat="46.150513" lon="7.385544"><ele>1524</ele><time>1970-01-01T00:00:00Z</time></trkpt>
<trkpt lat="46.149694" lon="7.385933"><ele>1525</ele><time>1970-01-01T00:00:00Z</time></trkpt>
<trkpt lat="46.149325" lon="7.385933"><ele>1520</ele><time>1970-01-01T00:00:00Z</time></trkpt>
<trkpt lat="46.148867" lon="7.385921"><ele>1523</ele><time>1970-01-01T00:00:00Z</time></trkpt>
<trkpt lat="46.148336" lon="7.385870"><ele>1526</ele><time>1970-01-01T00:00:00Z</time></trkpt>
<trkpt lat="46.148156" lon="7.385753"><ele>1520</ele><time>1970-01-01T00:00:00Z</time></trkpt>
<trkpt lat="46.148003" lon="7.385456"><ele>1522</ele><time>1970-01-01T00:00:00Z</time></trkpt>
<trkpt lat="46.147652" lon="7.385340"><ele>1517</ele><time>1970-01-01T00:00:00Z</time></trkpt>
<trkpt lat="46.147265" lon="7.384952"><ele>1532</ele><time>1970-01-01T00:00:00Z</time></trkpt>
<trkpt lat="46.147076" lon="7.385599"><ele>1515</ele><time>1970-01-01T00:00:00Z</time></trkpt>
<trkpt lat="46.146600" lon="7.385716"><ele>1529</ele><time>1970-01-01T00:00:00Z</time></trkpt>
<trkpt lat="46.145592" lon="7.386429"><ele>1522</ele><time>1970-01-01T00:00:00Z</time></trkpt>
<trkpt lat="46.145089" lon="7.386701"><ele>1518</ele><time>1970-01-01T00:00:00Z</time></trkpt>
<trkpt lat="46.144603" lon="7.386507"><ele>1531</ele><time>1970-01-01T00:00:00Z</time></trkpt>
<trkpt lat="46.144072" lon="7.386754"><ele>1519</ele><time>1970-01-01T00:00:00Z</time></trkpt>
<trkpt lat="46.143821" lon="7.386948"><ele>1515</ele><time>1970-01-01T00:00:00Z</time></trkpt>
<trkpt lat="46.143200" lon="7.387220"><ele>1514</ele><time>1970-01-01T00:00:00Z</time></trkpt>
<trkpt lat="46.143047" lon="7.387441"><ele>1506</ele><time>1970-01-01T00:00:00Z</time></trkpt>
<trkpt lat="46.142516" lon="7.387480"><ele>1514</ele><time>1970-01-01T00:00:00Z</time></trkpt>
<trkpt lat="46.141815" lon="7.387856"><ele>1507</ele><time>1970-01-01T00:00:00Z</time></trkpt>
<trkpt lat="46.140951" lon="7.387908"><ele>1514</ele><time>1970-01-01T00:00:00Z</time></trkpt>
<trkpt lat="46.140583" lon="7.387792"><ele>1520</ele><time>1970-01-01T00:00:00Z</time></trkpt>
<trkpt lat="46.139863" lon="7.387884"><ele>1529</ele><time>1970-01-01T00:00:00Z</time></trkpt>
<trkpt lat="46.139485" lon="7.387949"><ele>1522</ele><time>1970-01-01T00:00:00Z</time></trkpt>
<trkpt lat="46.138991" lon="7.388195"><ele>1531</ele><time>1970-01-01T00:00:00Z</time></trkpt>
<trkpt lat="46.138388" lon="7.388118"><ele>1529</ele><time>1970-01-01T00:00:00Z</time></trkpt>
<trkpt lat="46.137839" lon="7.388429"><ele>1538</ele><time>1970-01-01T00:00:00Z</time></trkpt>
<trkpt lat="46.137255" lon="7.388662"><ele>1534</ele><time>1970-01-01T00:00:00Z</time></trkpt>
<trkpt lat="46.136247" lon="7.388689"><ele>1527</ele><time>1970-01-01T00:00:00Z</time></trkpt>
<trkpt lat="46.135923" lon="7.388470"><ele>1529</ele><time>1970-01-01T00:00:00Z</time></trkpt>
<trkpt lat="46.135483" lon="7.388703"><ele>1524</ele><time>1970-01-01T00:00:00Z</time></trkpt>
<trkpt lat="46.135033" lon="7.388664"><ele>1525</ele><time>1970-01-01T00:00:00Z</time></trkpt>
<trkpt lat="46.134331" lon="7.388173"><ele>1536</ele><time>1970-01-01T00:00:00Z</time></trkpt>
<trkpt lat="46.133674" lon="7.388847"><ele>1524</ele><time>1970-01-01T00:00:00Z</time></trkpt>
<trkpt lat="46.133666" lon="7.388963"><ele>1523</ele><time>1970-01-01T00:00:00Z</time></trkpt>
<trkpt lat="46.133297" lon="7.389468"><ele>1526</ele><time>1970-01-01T00:00:00Z</time></trkpt>
<trkpt lat="46.132847" lon="7.389598"><ele>1531</ele><time>1970-01-01T00:00:00Z</time></trkpt>
<trkpt lat="46.132326" lon="7.389883"><ele>1530</ele><time>1970-01-01T00:00:00Z</time></trkpt>
<trkpt lat="46.131975" lon="7.389922"><ele>1532</ele><time>1970-01-01T00:00:00Z</time></trkpt>
<trkpt lat="46.131462" lon="7.390156"><ele>1526</ele><time>1970-01-01T00:00:00Z</time></trkpt>
<trkpt lat="46.130995" lon="7.390518"><ele>1526</ele><time>1970-01-01T00:00:00Z</time></trkpt>
<trkpt lat="46.130662" lon="7.390570"><ele>1526</ele><time>1970-01-01T00:00:00Z</time></trkpt>
<trkpt lat="46.130329" lon="7.390571"><ele>1529</ele><time>1970-01-01T00:00:00Z</time></trkpt>
<trkpt lat="46.129915" lon="7.390597"><ele>1541</ele><time>1970-01-01T00:00:00Z</time></trkpt>
<trkpt lat="46.129690" lon="7.390714"><ele>1533</ele><time>1970-01-01T00:00:00Z</time></trkpt>
<trkpt lat="46.129177" lon="7.390391"><ele>1538</ele><time>1970-01-01T00:00:00Z</time></trkpt>
<trkpt lat="46.128952" lon="7.390300"><ele>1533</ele><time>1970-01-01T00:00:00Z</time></trkpt>
<trkpt lat="46.128944" lon="7.390404"><ele>1531</ele><time>1970-01-01T00:00:00Z</time></trkpt>
<trkpt lat="46.129591" lon="7.390843"><ele>1528</ele><time>1970-01-01T00:00:00Z</time></trkpt>
<trkpt lat="46.128908" lon="7.390727"><ele>1528</ele><time>1970-01-01T00:00:00Z</time></trkpt>
<trkpt lat="46.129169" lon="7.391206"><ele>1531</ele><time>1970-01-01T00:00:00Z</time></trkpt>
<trkpt lat="46.129610" lon="7.391581"><ele>1541</ele><time>1970-01-01T00:00:00Z</time></trkpt>
<trkpt lat="46.130248" lon="7.391696"><ele>1529</ele><time>1970-01-01T00:00:00Z</time></trkpt>
<trkpt lat="46.131031" lon="7.392175"><ele>1530</ele><time>1970-01-01T00:00:00Z</time></trkpt>
<trkpt lat="46.131112" lon="7.392498"><ele>1533</ele><time>1970-01-01T00:00:00Z</time></trkpt>
<trkpt lat="46.130707" lon="7.392175"><ele>1537</ele><time>1970-01-01T00:00:00Z</time></trkpt>
<trkpt lat="46.130644" lon="7.392356"><ele>1541</ele><time>1970-01-01T00:00:00Z</time></trkpt>
<trkpt lat="46.130744" lon="7.392563"><ele>1542</ele><time>1970-01-01T00:00:00Z</time></trkpt>
<trkpt lat="46.131193" lon="7.392951"><ele>1539</ele><time>1970-01-01T00:00:00Z</time></trkpt>
<trkpt lat="46.132210" lon="7.394024"><ele>1563</ele><time>1970-01-01T00:00:00Z</time></trkpt>
<trkpt lat="46.133065" lon="7.394360"><ele>1561</ele><time>1970-01-01T00:00:00Z</time></trkpt>
<trkpt lat="46.133947" lon="7.395329"><ele>1577</ele><time>1970-01-01T00:00:00Z</time></trkpt>
<trkpt lat="46.134397" lon="7.395639"><ele>1579</ele><time>1970-01-01T00:00:00Z</time></trkpt>
<trkpt lat="46.134307" lon="7.395872"><ele>1586</ele><time>1970-01-01T00:00:00Z</time></trkpt>
<trkpt lat="46.133605" lon="7.395407"><ele>1589</ele><time>1970-01-01T00:00:00Z</time></trkpt>
<trkpt lat="46.132967" lon="7.395382"><ele>1594</ele><time>1970-01-01T00:00:00Z</time></trkpt>
<trkpt lat="46.131860" lon="7.394878"><ele>1603</ele><time>1970-01-01T00:00:00Z</time></trkpt>
<trkpt lat="46.131275" lon="7.394723"><ele>1609</ele><time>1970-01-01T00:00:00Z</time></trkpt>
<trkpt lat="46.130924" lon="7.394698"><ele>1619</ele><time>1970-01-01T00:00:00Z</time></trkpt>
<trkpt lat="46.130384" lon="7.394362"><ele>1616</ele><time>1970-01-01T00:00:00Z</time></trkpt>
<trkpt lat="46.129692" lon="7.394349"><ele>1633</ele><time>1970-01-01T00:00:00Z</time></trkpt>
<trkpt lat="46.129260" lon="7.394246"><ele>1638</ele><time>1970-01-01T00:00:00Z</time></trkpt>
<trkpt lat="46.128801" lon="7.393936"><ele>1637</ele><time>1970-01-01T00:00:00Z</time></trkpt>
<trkpt lat="46.128207" lon="7.393833"><ele>1640</ele><time>1970-01-01T00:00:00Z</time></trkpt>
<trkpt lat="46.127955" lon="7.393937"><ele>1643</ele><time>1970-01-01T00:00:00Z</time></trkpt>
<trkpt lat="46.126993" lon="7.394080"><ele>1649</ele><time>1970-01-01T00:00:00Z</time></trkpt>
<trkpt lat="46.126444" lon="7.394313"><ele>1656</ele><time>1970-01-01T00:00:00Z</time></trkpt>
<trkpt lat="46.126031" lon="7.394404"><ele>1657</ele><time>1970-01-01T00:00:00Z</time></trkpt>
<trkpt lat="46.125698" lon="7.394754"><ele>1659</ele><time>1970-01-01T00:00:00Z</time></trkpt>
<trkpt lat="46.125572" lon="7.394961"><ele>1661</ele><time>1970-01-01T00:00:00Z</time></trkpt>
<trkpt lat="46.124817" lon="7.395595"><ele>1667</ele><time>1970-01-01T00:00:00Z</time></trkpt>
<trkpt lat="46.124889" lon="7.395802"><ele>1675</ele><time>1970-01-01T00:00:00Z</time></trkpt>
<trkpt lat="46.125734" lon="7.395349"><ele>1676</ele><time>1970-01-01T00:00:00Z</time></trkpt>
<trkpt lat="46.126688" lon="7.395322"><ele>1686</ele><time>1970-01-01T00:00:00Z</time></trkpt>
<trkpt lat="46.127515" lon="7.395477"><ele>1689</ele><time>1970-01-01T00:00:00Z</time></trkpt>
<trkpt lat="46.128910" lon="7.396174"><ele>1709</ele><time>1970-01-01T00:00:00Z</time></trkpt>
<trkpt lat="46.129945" lon="7.397040"><ele>1719</ele><time>1970-01-01T00:00:00Z</time></trkpt>
<trkpt lat="46.130503" lon="7.397726"><ele>1724</ele><time>1970-01-01T00:00:00Z</time></trkpt>
<trkpt lat="46.130809" lon="7.398528"><ele>1748</ele><time>1970-01-01T00:00:00Z</time></trkpt>
<trkpt lat="46.133148" lon="7.400182"><ele>1755</ele><time>1970-01-01T00:00:00Z</time></trkpt>
<trkpt lat="46.130854" lon="7.399770"><ele>1787</ele><time>1970-01-01T00:00:00Z</time></trkpt>
<trkpt lat="46.130602" lon="7.399524"><ele>1788</ele><time>1970-01-01T00:00:00Z</time></trkpt>
<trkpt lat="46.129910" lon="7.399589"><ele>1797</ele><time>1970-01-01T00:00:00Z</time></trkpt>
<trkpt lat="46.129406" lon="7.399965"><ele>1802</ele><time>1970-01-01T00:00:00Z</time></trkpt>
<trkpt lat="46.128920" lon="7.399991"><ele>1813</ele><time>1970-01-01T00:00:00Z</time></trkpt>
<trkpt lat="46.128542" lon="7.399590"><ele>1811</ele><time>1970-01-01T00:00:00Z</time></trkpt>
<trkpt lat="46.127265" lon="7.399682"><ele>1824</ele><time>1970-01-01T00:00:00Z</time></trkpt>
<trkpt lat="46.126644" lon="7.400109"><ele>1834</ele><time>1970-01-01T00:00:00Z</time></trkpt>
<trkpt lat="46.126303" lon="7.400265"><ele>1837</ele><time>1970-01-01T00:00:00Z</time></trkpt>
<trkpt lat="46.125421" lon="7.400162"><ele>1841</ele><time>1970-01-01T00:00:00Z</time></trkpt>
<trkpt lat="46.125115" lon="7.400317"><ele>1847</ele><time>1970-01-01T00:00:00Z</time></trkpt>
<trkpt lat="46.124477" lon="7.400913"><ele>1856</ele><time>1970-01-01T00:00:00Z</time></trkpt>
<trkpt lat="46.123955" lon="7.401198"><ele>1862</ele><time>1970-01-01T00:00:00Z</time></trkpt>
<trkpt lat="46.123559" lon="7.401340"><ele>1866</ele><time>1970-01-01T00:00:00Z</time></trkpt>
<trkpt lat="46.123119" lon="7.401703"><ele>1872</ele><time>1970-01-01T00:00:00Z</time></trkpt>
<trkpt lat="46.122723" lon="7.401975"><ele>1874</ele><time>1970-01-01T00:00:00Z</time></trkpt>
<trkpt lat="46.122795" lon="7.402117"><ele>1878</ele><time>1970-01-01T00:00:00Z</time></trkpt>
<trkpt lat="46.123362" lon="7.401819"><ele>1876</ele><time>1970-01-01T00:00:00Z</time></trkpt>
<trkpt lat="46.123650" lon="7.401935"><ele>1882</ele><time>1970-01-01T00:00:00Z</time></trkpt>
<trkpt lat="46.124018" lon="7.402245"><ele>1891</ele><time>1970-01-01T00:00:00Z</time></trkpt>
<trkpt lat="46.124378" lon="7.402375"><ele>1896</ele><time>1970-01-01T00:00:00Z</time></trkpt>
<trkpt lat="46.124828" lon="7.402465"><ele>1896</ele><time>1970-01-01T00:00:00Z</time></trkpt>
<trkpt lat="46.125116" lon="7.402672"><ele>1901</ele><time>1970-01-01T00:00:00Z</time></trkpt>
<trkpt lat="46.125557" lon="7.402969"><ele>1906</ele><time>1970-01-01T00:00:00Z</time></trkpt>
<trkpt lat="46.126178" lon="7.403085"><ele>1913</ele><time>1970-01-01T00:00:00Z</time></trkpt>
<trkpt lat="46.126501" lon="7.403085"><ele>1910</ele><time>1970-01-01T00:00:00Z</time></trkpt>
<trkpt lat="46.126825" lon="7.403266"><ele>1913</ele><time>1970-01-01T00:00:00Z</time></trkpt>
<trkpt lat="46.126996" lon="7.403589"><ele>1919</ele><time>1970-01-01T00:00:00Z</time></trkpt>
<trkpt lat="46.127311" lon="7.404016"><ele>1925</ele><time>1970-01-01T00:00:00Z</time></trkpt>
<trkpt lat="46.127851" lon="7.404300"><ele>1931</ele><time>1970-01-01T00:00:00Z</time></trkpt>
<trkpt lat="46.128175" lon="7.404416"><ele>1937</ele><time>1970-01-01T00:00:00Z</time></trkpt>
<trkpt lat="46.128742" lon="7.404118"><ele>1942</ele><time>1970-01-01T00:00:00Z</time></trkpt>
<trkpt lat="46.129371" lon="7.403652"><ele>1947</ele><time>1970-01-01T00:00:00Z</time></trkpt>
<trkpt lat="46.129587" lon="7.403652"><ele>1947</ele><time>1970-01-01T00:00:00Z</time></trkpt>
<trkpt lat="46.129551" lon="7.403924"><ele>1951</ele><time>1970-01-01T00:00:00Z</time></trkpt>
<trkpt lat="46.129129" lon="7.404338"><ele>1954</ele><time>1970-01-01T00:00:00Z</time></trkpt>
<trkpt lat="46.128319" lon="7.405451"><ele>1965</ele><time>1970-01-01T00:00:00Z</time></trkpt>
<trkpt lat="46.127968" lon="7.405646"><ele>1966</ele><time>1970-01-01T00:00:00Z</time></trkpt>
<trkpt lat="46.127924" lon="7.405956"><ele>1967</ele><time>1970-01-01T00:00:00Z</time></trkpt>
<trkpt lat="46.128175" lon="7.405814"><ele>1969</ele><time>1970-01-01T00:00:00Z</time></trkpt>
<trkpt lat="46.128436" lon="7.405710"><ele>1971</ele><time>1970-01-01T00:00:00Z</time></trkpt>
<trkpt lat="46.128724" lon="7.405787"><ele>1974</ele><time>1970-01-01T00:00:00Z</time></trkpt>
<trkpt lat="46.128850" lon="7.406150"><ele>1974</ele><time>1970-01-01T00:00:00Z</time></trkpt>
<trkpt lat="46.128850" lon="7.406719"><ele>1976</ele><time>1970-01-01T00:00:00Z</time></trkpt>
<trkpt lat="46.128769" lon="7.407029"><ele>1977</ele><time>1970-01-01T00:00:00Z</time></trkpt>
<trkpt lat="46.128491" lon="7.407353"><ele>1981</ele><time>1970-01-01T00:00:00Z</time></trkpt>
<trkpt lat="46.128338" lon="7.407508"><ele>1980</ele><time>1970-01-01T00:00:00Z</time></trkpt>
<trkpt lat="46.128248" lon="7.408026"><ele>1985</ele><time>1970-01-01T00:00:00Z</time></trkpt>
<trkpt lat="46.128050" lon="7.408337"><ele>1985</ele><time>1970-01-01T00:00:00Z</time></trkpt>
<trkpt lat="46.127870" lon="7.408401"><ele>1985</ele><time>1970-01-01T00:00:00Z</time></trkpt>
<trkpt lat="46.127663" lon="7.408570"><ele>1988</ele><time>1970-01-01T00:00:00Z</time></trkpt>
<trkpt lat="46.127664" lon="7.408725"><ele>1990</ele><time>1970-01-01T00:00:00Z</time></trkpt>
<trkpt lat="46.127843" lon="7.408725"><ele>1990</ele><time>1970-01-01T00:00:00Z</time></trkpt>
<trkpt lat="46.128212" lon="7.409022"><ele>1995</ele><time>1970-01-01T00:00:00Z</time></trkpt>
<trkpt lat="46.128626" lon="7.409100"><ele>1997</ele><time>1970-01-01T00:00:00Z</time></trkpt>
<trkpt lat="46.128842" lon="7.409436"><ele>2002</ele><time>1970-01-01T00:00:00Z</time></trkpt>
<trkpt lat="46.129355" lon="7.409875"><ele>2011</ele><time>1970-01-01T00:00:00Z</time></trkpt>
<trkpt lat="46.129967" lon="7.409940"><ele>2017</ele><time>1970-01-01T00:00:00Z</time></trkpt>
<trkpt lat="46.130237" lon="7.409914"><ele>2021</ele><time>1970-01-01T00:00:00Z</time></trkpt>
<trkpt lat="46.130533" lon="7.409810"><ele>2026</ele><time>1970-01-01T00:00:00Z</time></trkpt>
<trkpt lat="46.130219" lon="7.410237"><ele>2029</ele><time>1970-01-01T00:00:00Z</time></trkpt>
<trkpt lat="46.130003" lon="7.410587"><ele>2036</ele><time>1970-01-01T00:00:00Z</time></trkpt>
<trkpt lat="46.129679" lon="7.410742"><ele>2040</ele><time>1970-01-01T00:00:00Z</time></trkpt>
<trkpt lat="46.129436" lon="7.410768"><ele>2041</ele><time>1970-01-01T00:00:00Z</time></trkpt>
<trkpt lat="46.129148" lon="7.410587"><ele>2041</ele><time>1970-01-01T00:00:00Z</time></trkpt>
<trkpt lat="46.129220" lon="7.410859"><ele>2048</ele><time>1970-01-01T00:00:00Z</time></trkpt>
<trkpt lat="46.129490" lon="7.410962"><ele>2048</ele><time>1970-01-01T00:00:00Z</time></trkpt>
<trkpt lat="46.129760" lon="7.411286"><ele>2055</ele><time>1970-01-01T00:00:00Z</time></trkpt>
<trkpt lat="46.130345" lon="7.411246"><ele>2060</ele><time>1970-01-01T00:00:00Z</time></trkpt>
<trkpt lat="46.130678" lon="7.411389"><ele>2065</ele><time>1970-01-01T00:00:00Z</time></trkpt>
<trkpt lat="46.131190" lon="7.411337"><ele>2070</ele><time>1970-01-01T00:00:00Z</time></trkpt>
<trkpt lat="46.132153" lon="7.412100"><ele>2082</ele><time>1970-01-01T00:00:00Z</time></trkpt>
<trkpt lat="46.132135" lon="7.412371"><ele>2089</ele><time>1970-01-01T00:00:00Z</time></trkpt>
<trkpt lat="46.133125" lon="7.412850"><ele>2098</ele><time>1970-01-01T00:00:00Z</time></trkpt>
<trkpt lat="46.133583" lon="7.412396"><ele>2105</ele><time>1970-01-01T00:00:00Z</time></trkpt>
<trkpt lat="46.134060" lon="7.412228"><ele>2111</ele><time>1970-01-01T00:00:00Z</time></trkpt>
<trkpt lat="46.134348" lon="7.412396"><ele>2114</ele><time>1970-01-01T00:00:00Z</time></trkpt>
<trkpt lat="46.134528" lon="7.412758"><ele>2116</ele><time>1970-01-01T00:00:00Z</time></trkpt>
<trkpt lat="46.134780" lon="7.413108"><ele>2124</ele><time>1970-01-01T00:00:00Z</time></trkpt>
<trkpt lat="46.135230" lon="7.413198"><ele>2129</ele><time>1970-01-01T00:00:00Z</time></trkpt>
<trkpt lat="46.135770" lon="7.413301"><ele>2135</ele><time>1970-01-01T00:00:00Z</time></trkpt>
<trkpt lat="46.136183" lon="7.413689"><ele>2142</ele><time>1970-01-01T00:00:00Z</time></trkpt>
<trkpt lat="46.136615" lon="7.413857"><ele>2146</ele><time>1970-01-01T00:00:00Z</time></trkpt>
<trkpt lat="46.136939" lon="7.413935"><ele>2151</ele><time>1970-01-01T00:00:00Z</time></trkpt>
<trkpt lat="46.137632" lon="7.413456"><ele>2153</ele><time>1970-01-01T00:00:00Z</time></trkpt>
<trkpt lat="46.138396" lon="7.413455"><ele>2163</ele><time>1970-01-01T00:00:00Z</time></trkpt>
<trkpt lat="46.139107" lon="7.412937"><ele>2164</ele><time>1970-01-01T00:00:00Z</time></trkpt>
<trkpt lat="46.139269" lon="7.413222"><ele>2171</ele><time>1970-01-01T00:00:00Z</time></trkpt>
<trkpt lat="46.139737" lon="7.413248"><ele>2172</ele><time>1970-01-01T00:00:00Z</time></trkpt>
<trkpt lat="46.140609" lon="7.413195"><ele>2171</ele><time>1970-01-01T00:00:00Z</time></trkpt>
<trkpt lat="46.141266" lon="7.413195"><ele>2172</ele><time>1970-01-01T00:00:00Z</time></trkpt>
<trkpt lat="46.142210" lon="7.413169"><ele>2176</ele><time>1970-01-01T00:00:00Z</time></trkpt>
<trkpt lat="46.142507" lon="7.413285"><ele>2177</ele><time>1970-01-01T00:00:00Z</time></trkpt>
<trkpt lat="46.142750" lon="7.414269"><ele>2193</ele><time>1970-01-01T00:00:00Z</time></trkpt>
<trkpt lat="46.143164" lon="7.414734"><ele>2192</ele><time>1970-01-01T00:00:00Z</time></trkpt>
<trkpt lat="46.143596" lon="7.414967"><ele>2193</ele><time>1970-01-01T00:00:00Z</time></trkpt>
<trkpt lat="46.144127" lon="7.415484"><ele>2191</ele><time>1970-01-01T00:00:00Z</time></trkpt>
<trkpt lat="46.144442" lon="7.415653"><ele>2195</ele><time>1970-01-01T00:00:00Z</time></trkpt>
<trkpt lat="46.144730" lon="7.415575"><ele>2195</ele><time>1970-01-01T00:00:00Z</time></trkpt>
<trkpt lat="46.145062" lon="7.415601"><ele>2196</ele><time>1970-01-01T00:00:00Z</time></trkpt>
<trkpt lat="46.145305" lon="7.415355"><ele>2196</ele><time>1970-01-01T00:00:00Z</time></trkpt>
<trkpt lat="46.145494" lon="7.415147"><ele>2195</ele><time>1970-01-01T00:00:00Z</time></trkpt>
<trkpt lat="46.145899" lon="7.414655"><ele>2192</ele><time>1970-01-01T00:00:00Z</time></trkpt>
<trkpt lat="46.146196" lon="7.415147"><ele>2198</ele><time>1970-01-01T00:00:00Z</time></trkpt>
<trkpt lat="46.146430" lon="7.415186"><ele>2196</ele><time>1970-01-01T00:00:00Z</time></trkpt>
<trkpt lat="46.146448" lon="7.415483"><ele>2196</ele><time>1970-01-01T00:00:00Z</time></trkpt>
<trkpt lat="46.146196" lon="7.415846"><ele>2200</ele><time>1970-01-01T00:00:00Z</time></trkpt>
<trkpt lat="46.145863" lon="7.416416"><ele>2203</ele><time>1970-01-01T00:00:00Z</time></trkpt>
<trkpt lat="46.145782" lon="7.417101"><ele>2203</ele><time>1970-01-01T00:00:00Z</time></trkpt>
<trkpt lat="46.145719" lon="7.417490"><ele>2205</ele><time>1970-01-01T00:00:00Z</time></trkpt>
<trkpt lat="46.145621" lon="7.417904"><ele>2207</ele><time>1970-01-01T00:00:00Z</time></trkpt>
<trkpt lat="46.145351" lon="7.418875"><ele>2214</ele><time>1970-01-01T00:00:00Z</time></trkpt>
<trkpt lat="46.145261" lon="7.419418"><ele>2219</ele><time>1970-01-01T00:00:00Z</time></trkpt>
<trkpt lat="46.145162" lon="7.419716"><ele>2220</ele><time>1970-01-01T00:00:00Z</time></trkpt>
<trkpt lat="46.145333" lon="7.420156"><ele>2217</ele><time>1970-01-01T00:00:00Z</time></trkpt>
<trkpt lat="46.145342" lon="7.420700"><ele>2223</ele><time>1970-01-01T00:00:00Z</time></trkpt>
<trkpt lat="46.145225" lon="7.421114"><ele>2227</ele><time>1970-01-01T00:00:00Z</time></trkpt>
<trkpt lat="46.145279" lon="7.421528"><ele>2224</ele><time>1970-01-01T00:00:00Z</time></trkpt>
<trkpt lat="46.145055" lon="7.421968"><ele>2223</ele><time>1970-01-01T00:00:00Z</time></trkpt>
<trkpt lat="46.144506" lon="7.422952"><ele>2224</ele><time>1970-01-01T00:00:00Z</time></trkpt>
<trkpt lat="46.144218" lon="7.423625"><ele>2228</ele><time>1970-01-01T00:00:00Z</time></trkpt>
<trkpt lat="46.143948" lon="7.424337"><ele>2229</ele><time>1970-01-01T00:00:00Z</time></trkpt>
<trkpt lat="46.143787" lon="7.424699"><ele>2230</ele><time>1970-01-01T00:00:00Z</time></trkpt>
<trkpt lat="46.143454" lon="7.424906"><ele>2231</ele><time>1970-01-01T00:00:00Z</time></trkpt>
<trkpt lat="46.143040" lon="7.425644"><ele>2226</ele><time>1970-01-01T00:00:00Z</time></trkpt>
<trkpt lat="46.143049" lon="7.426679"><ele>2222</ele><time>1970-01-01T00:00:00Z</time></trkpt>
<trkpt lat="46.142788" lon="7.427715"><ele>2226</ele><time>1970-01-01T00:00:00Z</time></trkpt>
<trkpt lat="46.142645" lon="7.428155"><ele>2228</ele><time>1970-01-01T00:00:00Z</time></trkpt>
<trkpt lat="46.142465" lon="7.428582"><ele>2231</ele><time>1970-01-01T00:00:00Z</time></trkpt>
<trkpt lat="46.142483" lon="7.429294"><ele>2233</ele><time>1970-01-01T00:00:00Z</time></trkpt>
<trkpt lat="46.142294" lon="7.430627"><ele>2240</ele><time>1970-01-01T00:00:00Z</time></trkpt>
<trkpt lat="46.142312" lon="7.431274"><ele>2240</ele><time>1970-01-01T00:00:00Z</time></trkpt>
<trkpt lat="46.142159" lon="7.431895"><ele>2245</ele><time>1970-01-01T00:00:00Z</time></trkpt>
<trkpt lat="46.142033" lon="7.432102"><ele>2246</ele><time>1970-01-01T00:00:00Z</time></trkpt>
<trkpt lat="46.142159" lon="7.432632"><ele>2245</ele><time>1970-01-01T00:00:00Z</time></trkpt>
<trkpt lat="46.141907" lon="7.433707"><ele>2240</ele><time>1970-01-01T00:00:00Z</time></trkpt>
<trkpt lat="46.141538" lon="7.434871"><ele>2231</ele><time>1970-01-01T00:00:00Z</time></trkpt>
<trkpt lat="46.141107" lon="7.435441"><ele>2229</ele><time>1970-01-01T00:00:00Z</time></trkpt>
<trkpt lat="46.140900" lon="7.436243"><ele>2226</ele><time>1970-01-01T00:00:00Z</time></trkpt>
<trkpt lat="46.140504" lon="7.436631"><ele>2224</ele><time>1970-01-01T00:00:00Z</time></trkpt>
<trkpt lat="46.140261" lon="7.437201"><ele>2222</ele><time>1970-01-01T00:00:00Z</time></trkpt>
<trkpt lat="46.139865" lon="7.438055"><ele>2219</ele><time>1970-01-01T00:00:00Z</time></trkpt>
<trkpt lat="46.139389" lon="7.438495"><ele>2218</ele><time>1970-01-01T00:00:00Z</time></trkpt>
<trkpt lat="46.138858" lon="7.438560"><ele>2216</ele><time>1970-01-01T00:00:00Z</time></trkpt>
<trkpt lat="46.138705" lon="7.438598"><ele>2217</ele><time>1970-01-01T00:00:00Z</time></trkpt>
<trkpt lat="46.138759" lon="7.438534"><ele>2218</ele><time>1970-01-01T00:00:00Z</time></trkpt>
<trkpt lat="46.138552" lon="7.439038"><ele>2212</ele><time>1970-01-01T00:00:00Z</time></trkpt>
<trkpt lat="46.137886" lon="7.439000"><ele>2215</ele><time>1970-01-01T00:00:00Z</time></trkpt>
<trkpt lat="46.137500" lon="7.438728"><ele>2216</ele><time>1970-01-01T00:00:00Z</time></trkpt>
<trkpt lat="46.136897" lon="7.438469"><ele>2220</ele><time>1970-01-01T00:00:00Z</time></trkpt>
<trkpt lat="46.135952" lon="7.438650"><ele>2231</ele><time>1970-01-01T00:00:00Z</time></trkpt>
<trkpt lat="46.135332" lon="7.438728"><ele>2235</ele><time>1970-01-01T00:00:00Z</time></trkpt>
<trkpt lat="46.134612" lon="7.438585"><ele>2235</ele><time>1970-01-01T00:00:00Z</time></trkpt>
<trkpt lat="46.134162" lon="7.438585"><ele>2232</ele><time>1970-01-01T00:00:00Z</time></trkpt>
<trkpt lat="46.133694" lon="7.439000"><ele>2232</ele><time>1970-01-01T00:00:00Z</time></trkpt>
<trkpt lat="46.133146" lon="7.439776"><ele>2231</ele><time>1970-01-01T00:00:00Z</time></trkpt>
<trkpt lat="46.132669" lon="7.439892"><ele>2235</ele><time>1970-01-01T00:00:00Z</time></trkpt>
<trkpt lat="46.132237" lon="7.439711"><ele>2235</ele><time>1970-01-01T00:00:00Z</time></trkpt>
<trkpt lat="46.131706" lon="7.439802"><ele>2233</ele><time>1970-01-01T00:00:00Z</time></trkpt>
<trkpt lat="46.130924" lon="7.440099"><ele>2231</ele><time>1970-01-01T00:00:00Z</time></trkpt>
<trkpt lat="46.130258" lon="7.440604"><ele>2226</ele><time>1970-01-01T00:00:00Z</time></trkpt>
<trkpt lat="46.129790" lon="7.441251"><ele>2223</ele><time>1970-01-01T00:00:00Z</time></trkpt>
<trkpt lat="46.129440" lon="7.441729"><ele>2216</ele><time>1970-01-01T00:00:00Z</time></trkpt>
<trkpt lat="46.128918" lon="7.442053"><ele>2206</ele><time>1970-01-01T00:00:00Z</time></trkpt>
<trkpt lat="46.128711" lon="7.442545"><ele>2202</ele><time>1970-01-01T00:00:00Z</time></trkpt>
<trkpt lat="46.128369" lon="7.442713"><ele>2205</ele><time>1970-01-01T00:00:00Z</time></trkpt>
<trkpt lat="46.128387" lon="7.443049"><ele>2202</ele><time>1970-01-01T00:00:00Z</time></trkpt>
<trkpt lat="46.128351" lon="7.443437"><ele>2205</ele><time>1970-01-01T00:00:00Z</time></trkpt>
<trkpt lat="46.128144" lon="7.443787"><ele>2207</ele><time>1970-01-01T00:00:00Z</time></trkpt>
<trkpt lat="46.127991" lon="7.444149"><ele>2209</ele><time>1970-01-01T00:00:00Z</time></trkpt>
<trkpt lat="46.127667" lon="7.444576"><ele>2200</ele><time>1970-01-01T00:00:00Z</time></trkpt>
<trkpt lat="46.127442" lon="7.444860"><ele>2198</ele><time>1970-01-01T00:00:00Z</time></trkpt>
<trkpt lat="46.127514" lon="7.445611"><ele>2197</ele><time>1970-01-01T00:00:00Z</time></trkpt>
<trkpt lat="46.127622" lon="7.445947"><ele>2199</ele><time>1970-01-01T00:00:00Z</time></trkpt>
<trkpt lat="46.127766" lon="7.446387"><ele>2200</ele><time>1970-01-01T00:00:00Z</time></trkpt>
<trkpt lat="46.127910" lon="7.447008"><ele>2200</ele><time>1970-01-01T00:00:00Z</time></trkpt>
<trkpt lat="46.128117" lon="7.447539"><ele>2198</ele><time>1970-01-01T00:00:00Z</time></trkpt>
<trkpt lat="46.128180" lon="7.448341"><ele>2206</ele><time>1970-01-01T00:00:00Z</time></trkpt>
<trkpt lat="46.128063" lon="7.448871"><ele>2209</ele><time>1970-01-01T00:00:00Z</time></trkpt>
<trkpt lat="46.127649" lon="7.449997"><ele>2209</ele><time>1970-01-01T00:00:00Z</time></trkpt>
<trkpt lat="46.127361" lon="7.450527"><ele>2208</ele><time>1970-01-01T00:00:00Z</time></trkpt>
<trkpt lat="46.127280" lon="7.450902"><ele>2202</ele><time>1970-01-01T00:00:00Z</time></trkpt>
<trkpt lat="46.126731" lon="7.452157"><ele>2192</ele><time>1970-01-01T00:00:00Z</time></trkpt>
<trkpt lat="46.125679" lon="7.453386"><ele>2186</ele><time>1970-01-01T00:00:00Z</time></trkpt>
<trkpt lat="46.123834" lon="7.454601"><ele>2169</ele><time>1970-01-01T00:00:00Z</time></trkpt>
<trkpt lat="46.122377" lon="7.455312"><ele>2145</ele><time>1970-01-01T00:00:00Z</time></trkpt>
<trkpt lat="46.122926" lon="7.455261"><ele>2140</ele><time>1970-01-01T00:00:00Z</time></trkpt>
<trkpt lat="46.123276" lon="7.455287"><ele>2139</ele><time>1970-01-01T00:00:00Z</time></trkpt>
<trkpt lat="46.123969" lon="7.455429"><ele>2135</ele><time>1970-01-01T00:00:00Z</time></trkpt>
<trkpt lat="46.124437" lon="7.455404"><ele>2130</ele><time>1970-01-01T00:00:00Z</time></trkpt>
<trkpt lat="46.125094" lon="7.455223"><ele>2124</ele><time>1970-01-01T00:00:00Z</time></trkpt>
<trkpt lat="46.125669" lon="7.455275"><ele>2116</ele><time>1970-01-01T00:00:00Z</time></trkpt>
<trkpt lat="46.126047" lon="7.455495"><ele>2107</ele><time>1970-01-01T00:00:00Z</time></trkpt>
<trkpt lat="46.126533" lon="7.455547"><ele>2101</ele><time>1970-01-01T00:00:00Z</time></trkpt>
<trkpt lat="46.126497" lon="7.455689"><ele>2099</ele><time>1970-01-01T00:00:00Z</time></trkpt>
<trkpt lat="46.126182" lon="7.455961"><ele>2094</ele><time>1970-01-01T00:00:00Z</time></trkpt>
<trkpt lat="46.125633" lon="7.456116"><ele>2088</ele><time>1970-01-01T00:00:00Z</time></trkpt>
<trkpt lat="46.125417" lon="7.456206"><ele>2085</ele><time>1970-01-01T00:00:00Z</time></trkpt>
<trkpt lat="46.124985" lon="7.456374"><ele>2079</ele><time>1970-01-01T00:00:00Z</time></trkpt>
<trkpt lat="46.124724" lon="7.456710"><ele>2075</ele><time>1970-01-01T00:00:00Z</time></trkpt>
<trkpt lat="46.124311" lon="7.456878"><ele>2073</ele><time>1970-01-01T00:00:00Z</time></trkpt>
<trkpt lat="46.124167" lon="7.457021"><ele>2070</ele><time>1970-01-01T00:00:00Z</time></trkpt>
<trkpt lat="46.124679" lon="7.457060"><ele>2067</ele><time>1970-01-01T00:00:00Z</time></trkpt>
<trkpt lat="46.124940" lon="7.457383"><ele>2062</ele><time>1970-01-01T00:00:00Z</time></trkpt>
<trkpt lat="46.125156" lon="7.457448"><ele>2060</ele><time>1970-01-01T00:00:00Z</time></trkpt>
<trkpt lat="46.125588" lon="7.457487"><ele>2055</ele><time>1970-01-01T00:00:00Z</time></trkpt>
<trkpt lat="46.125930" lon="7.457435"><ele>2050</ele><time>1970-01-01T00:00:00Z</time></trkpt>
<trkpt lat="46.126407" lon="7.457034"><ele>2060</ele><time>1970-01-01T00:00:00Z</time></trkpt>
<trkpt lat="46.126892" lon="7.456905"><ele>2054</ele><time>1970-01-01T00:00:00Z</time></trkpt>
<trkpt lat="46.127306" lon="7.456517"><ele>2057</ele><time>1970-01-01T00:00:00Z</time></trkpt>
<trkpt lat="46.127882" lon="7.455741"><ele>2068</ele><time>1970-01-01T00:00:00Z</time></trkpt>
<trkpt lat="46.128305" lon="7.455392"><ele>2044</ele><time>1970-01-01T00:00:00Z</time></trkpt>
<trkpt lat="46.128629" lon="7.454926"><ele>2042</ele><time>1970-01-01T00:00:00Z</time></trkpt>
<trkpt lat="46.128971" lon="7.454668"><ele>2043</ele><time>1970-01-01T00:00:00Z</time></trkpt>
<trkpt lat="46.128422" lon="7.455909"><ele>2023</ele><time>1970-01-01T00:00:00Z</time></trkpt>
<trkpt lat="46.128233" lon="7.456298"><ele>2022</ele><time>1970-01-01T00:00:00Z</time></trkpt>
<trkpt lat="46.127936" lon="7.456608"><ele>2038</ele><time>1970-01-01T00:00:00Z</time></trkpt>
<trkpt lat="46.128557" lon="7.456414"><ele>2007</ele><time>1970-01-01T00:00:00Z</time></trkpt>
<trkpt lat="46.129006" lon="7.456181"><ele>1999</ele><time>1970-01-01T00:00:00Z</time></trkpt>
<trkpt lat="46.129798" lon="7.455172"><ele>2001</ele><time>1970-01-01T00:00:00Z</time></trkpt>
<trkpt lat="46.129483" lon="7.456039"><ele>1987</ele><time>1970-01-01T00:00:00Z</time></trkpt>
<trkpt lat="46.129240" lon="7.456802"><ele>1990</ele><time>1970-01-01T00:00:00Z</time></trkpt>
<trkpt lat="46.128862" lon="7.457605"><ele>1986</ele><time>1970-01-01T00:00:00Z</time></trkpt>
<trkpt lat="46.128367" lon="7.458109"><ele>1977</ele><time>1970-01-01T00:00:00Z</time></trkpt>
<trkpt lat="46.128367" lon="7.458368"><ele>1970</ele><time>1970-01-01T00:00:00Z</time></trkpt>
<trkpt lat="46.128133" lon="7.458859"><ele>1961</ele><time>1970-01-01T00:00:00Z</time></trkpt>
<trkpt lat="46.127819" lon="7.458846"><ele>1961</ele><time>1970-01-01T00:00:00Z</time></trkpt>
<trkpt lat="46.127036" lon="7.459764"><ele>1947</ele><time>1970-01-01T00:00:00Z</time></trkpt>
<trkpt lat="46.126352" lon="7.459997"><ele>1943</ele><time>1970-01-01T00:00:00Z</time></trkpt>
<trkpt lat="46.125551" lon="7.460475"><ele>1931</ele><time>1970-01-01T00:00:00Z</time></trkpt>
<trkpt lat="46.125147" lon="7.460812"><ele>1925</ele><time>1970-01-01T00:00:00Z</time></trkpt>
<trkpt lat="46.124499" lon="7.460915"><ele>1919</ele><time>1970-01-01T00:00:00Z</time></trkpt>
<trkpt lat="46.122781" lon="7.461095"><ele>1905</ele><time>1970-01-01T00:00:00Z</time></trkpt>
<trkpt lat="46.122574" lon="7.461393"><ele>1899</ele><time>1970-01-01T00:00:00Z</time></trkpt>
<trkpt lat="46.123006" lon="7.461328"><ele>1895</ele><time>1970-01-01T00:00:00Z</time></trkpt>
<trkpt lat="46.124391" lon="7.461833"><ele>1882</ele><time>1970-01-01T00:00:00Z</time></trkpt>
<trkpt lat="46.125074" lon="7.462286"><ele>1872</ele><time>1970-01-01T00:00:00Z</time></trkpt>
<trkpt lat="46.124409" lon="7.462196"><ele>1865</ele><time>1970-01-01T00:00:00Z</time></trkpt>
<trkpt lat="46.123707" lon="7.462312"><ele>1857</ele><time>1970-01-01T00:00:00Z</time></trkpt>
<trkpt lat="46.123500" lon="7.462700"><ele>1853</ele><time>1970-01-01T00:00:00Z</time></trkpt>
<trkpt lat="46.123266" lon="7.463398"><ele>1846</ele><time>1970-01-01T00:00:00Z</time></trkpt>
<trkpt lat="46.122933" lon="7.463515"><ele>1846</ele><time>1970-01-01T00:00:00Z</time></trkpt>
<trkpt lat="46.122825" lon="7.463760"><ele>1843</ele><time>1970-01-01T00:00:00Z</time></trkpt>
<trkpt lat="46.123338" lon="7.463735"><ele>1838</ele><time>1970-01-01T00:00:00Z</time></trkpt>
<trkpt lat="46.123752" lon="7.463670"><ele>1834</ele><time>1970-01-01T00:00:00Z</time></trkpt>
<trkpt lat="46.124103" lon="7.463437"><ele>1831</ele><time>1970-01-01T00:00:00Z</time></trkpt>
<trkpt lat="46.124435" lon="7.463554"><ele>1826</ele><time>1970-01-01T00:00:00Z</time></trkpt>
<trkpt lat="46.124867" lon="7.463697"><ele>1823</ele><time>1970-01-01T00:00:00Z</time></trkpt>
<trkpt lat="46.125200" lon="7.463865"><ele>1819</ele><time>1970-01-01T00:00:00Z</time></trkpt>
<trkpt lat="46.125425" lon="7.464007"><ele>1814</ele><time>1970-01-01T00:00:00Z</time></trkpt>
<trkpt lat="46.125767" lon="7.463788"><ele>1812</ele><time>1970-01-01T00:00:00Z</time></trkpt>
<trkpt lat="46.125380" lon="7.464292"><ele>1805</ele><time>1970-01-01T00:00:00Z</time></trkpt>
<trkpt lat="46.125137" lon="7.464331"><ele>1804</ele><time>1970-01-01T00:00:00Z</time></trkpt>
<trkpt lat="46.124840" lon="7.464305"><ele>1802</ele><time>1970-01-01T00:00:00Z</time></trkpt>
<trkpt lat="46.124804" lon="7.464499"><ele>1798</ele><time>1970-01-01T00:00:00Z</time></trkpt>
<trkpt lat="46.125335" lon="7.464602"><ele>1795</ele><time>1970-01-01T00:00:00Z</time></trkpt>
<trkpt lat="46.125506" lon="7.464564"><ele>1792</ele><time>1970-01-01T00:00:00Z</time></trkpt>
<trkpt lat="46.125892" lon="7.464292"><ele>1795</ele><time>1970-01-01T00:00:00Z</time></trkpt>
<trkpt lat="46.125461" lon="7.464887"><ele>1784</ele><time>1970-01-01T00:00:00Z</time></trkpt>
<trkpt lat="46.124993" lon="7.465003"><ele>1781</ele><time>1970-01-01T00:00:00Z</time></trkpt>
<trkpt lat="46.124552" lon="7.464887"><ele>1778</ele><time>1970-01-01T00:00:00Z</time></trkpt>
<trkpt lat="46.124120" lon="7.465184"><ele>1783</ele><time>1970-01-01T00:00:00Z</time></trkpt>
<trkpt lat="46.123688" lon="7.465546"><ele>1771</ele><time>1970-01-01T00:00:00Z</time></trkpt>
<trkpt lat="46.122654" lon="7.465869"><ele>1754</ele><time>1970-01-01T00:00:00Z</time></trkpt>
<trkpt lat="46.121691" lon="7.465985"><ele>1746</ele><time>1970-01-01T00:00:00Z</time></trkpt>
<trkpt lat="46.121547" lon="7.466347"><ele>1743</ele><time>1970-01-01T00:00:00Z</time></trkpt>
<trkpt lat="46.121592" lon="7.467046"><ele>1734</ele><time>1970-01-01T00:00:00Z</time></trkpt>
<trkpt lat="46.120926" lon="7.467175"><ele>1731</ele><time>1970-01-01T00:00:00Z</time></trkpt>
<trkpt lat="46.120728" lon="7.467317"><ele>1728</ele><time>1970-01-01T00:00:00Z</time></trkpt>
<trkpt lat="46.120845" lon="7.467382"><ele>1724</ele><time>1970-01-01T00:00:00Z</time></trkpt>
<trkpt lat="46.121259" lon="7.467265"><ele>1724</ele><time>1970-01-01T00:00:00Z</time></trkpt>
<trkpt lat="46.121583" lon="7.467356"><ele>1723</ele><time>1970-01-01T00:00:00Z</time></trkpt>
<trkpt lat="46.121727" lon="7.467291"><ele>1726</ele><time>1970-01-01T00:00:00Z</time></trkpt>
<trkpt lat="46.122006" lon="7.466722"><ele>1723</ele><time>1970-01-01T00:00:00Z</time></trkpt>
<trkpt lat="46.122707" lon="7.467020"><ele>1704</ele><time>1970-01-01T00:00:00Z</time></trkpt>
<trkpt lat="46.123121" lon="7.467085"><ele>1702</ele><time>1970-01-01T00:00:00Z</time></trkpt>
<trkpt lat="46.123508" lon="7.466904"><ele>1705</ele><time>1970-01-01T00:00:00Z</time></trkpt>
<trkpt lat="46.124066" lon="7.466827"><ele>1696</ele><time>1970-01-01T00:00:00Z</time></trkpt>
<trkpt lat="46.124551" lon="7.467034"><ele>1689</ele><time>1970-01-01T00:00:00Z</time></trkpt>
<trkpt lat="46.125091" lon="7.467022"><ele>1687</ele><time>1970-01-01T00:00:00Z</time></trkpt>
<trkpt lat="46.125469" lon="7.466854"><ele>1694</ele><time>1970-01-01T00:00:00Z</time></trkpt>
<trkpt lat="46.125343" lon="7.467060"><ele>1685</ele><time>1970-01-01T00:00:00Z</time></trkpt>
<trkpt lat="46.124947" lon="7.467228"><ele>1680</ele><time>1970-01-01T00:00:00Z</time></trkpt>
<trkpt lat="46.124578" lon="7.467565"><ele>1673</ele><time>1970-01-01T00:00:00Z</time></trkpt>
<trkpt lat="46.123940" lon="7.467745"><ele>1666</ele><time>1970-01-01T00:00:00Z</time></trkpt>
<trkpt lat="46.123463" lon="7.467978"><ele>1663</ele><time>1970-01-01T00:00:00Z</time></trkpt>
<trkpt lat="46.123139" lon="7.468198"><ele>1658</ele><time>1970-01-01T00:00:00Z</time></trkpt>
<trkpt lat="46.122824" lon="7.468249"><ele>1655</ele><time>1970-01-01T00:00:00Z</time></trkpt>
<trkpt lat="46.122401" lon="7.468288"><ele>1653</ele><time>1970-01-01T00:00:00Z</time></trkpt>
<trkpt lat="46.122221" lon="7.468508"><ele>1650</ele><time>1970-01-01T00:00:00Z</time></trkpt>
<trkpt lat="46.121771" lon="7.469219"><ele>1636</ele><time>1970-01-01T00:00:00Z</time></trkpt>
<trkpt lat="46.121420" lon="7.469245"><ele>1636</ele><time>1970-01-01T00:00:00Z</time></trkpt>
<trkpt lat="46.121052" lon="7.469244"><ele>1635</ele><time>1970-01-01T00:00:00Z</time></trkpt>
<trkpt lat="46.120926" lon="7.469426"><ele>1630</ele><time>1970-01-01T00:00:00Z</time></trkpt>
<trkpt lat="46.120845" lon="7.469814"><ele>1625</ele><time>1970-01-01T00:00:00Z</time></trkpt>
<trkpt lat="46.120746" lon="7.469878"><ele>1623</ele><time>1970-01-01T00:00:00Z</time></trkpt>
<trkpt lat="46.120557" lon="7.469606"><ele>1623</ele><time>1970-01-01T00:00:00Z</time></trkpt>
<trkpt lat="46.120395" lon="7.469542"><ele>1618</ele><time>1970-01-01T00:00:00Z</time></trkpt>
<trkpt lat="46.119963" lon="7.469360"><ele>1612</ele><time>1970-01-01T00:00:00Z</time></trkpt>
<trkpt lat="46.119837" lon="7.468920"><ele>1617</ele><time>1970-01-01T00:00:00Z</time></trkpt>
<trkpt lat="46.119594" lon="7.468713"><ele>1609</ele><time>1970-01-01T00:00:00Z</time></trkpt>
<trkpt lat="46.119226" lon="7.468558"><ele>1606</ele><time>1970-01-01T00:00:00Z</time></trkpt>
<trkpt lat="46.118641" lon="7.468273"><ele>1599</ele><time>1970-01-01T00:00:00Z</time></trkpt>
<trkpt lat="46.118416" lon="7.468260"><ele>1593</ele><time>1970-01-01T00:00:00Z</time></trkpt>
<trkpt lat="46.118209" lon="7.467962"><ele>1608</ele><time>1970-01-01T00:00:00Z</time></trkpt>
<trkpt lat="46.118047" lon="7.468143"><ele>1596</ele><time>1970-01-01T00:00:00Z</time></trkpt>
<trkpt lat="46.117984" lon="7.468725"><ele>1585</ele><time>1970-01-01T00:00:00Z</time></trkpt>
<trkpt lat="46.117966" lon="7.469294"><ele>1594</ele><time>1970-01-01T00:00:00Z</time></trkpt>
<trkpt lat="46.118452" lon="7.470459"><ele>1566</ele><time>1970-01-01T00:00:00Z</time></trkpt>
<trkpt lat="46.118298" lon="7.471119"><ele>1570</ele><time>1970-01-01T00:00:00Z</time></trkpt>
<trkpt lat="46.118352" lon="7.471636"><ele>1567</ele><time>1970-01-01T00:00:00Z</time></trkpt>
<trkpt lat="46.118343" lon="7.472283"><ele>1563</ele><time>1970-01-01T00:00:00Z</time></trkpt>
<trkpt lat="46.118478" lon="7.472917"><ele>1552</ele><time>1970-01-01T00:00:00Z</time></trkpt>
<trkpt lat="46.118253" lon="7.473343"><ele>1569</ele><time>1970-01-01T00:00:00Z</time></trkpt>
<trkpt lat="46.118208" lon="7.474301"><ele>1567</ele><time>1970-01-01T00:00:00Z</time></trkpt>
<trkpt lat="46.118207" lon="7.474935"><ele>1556</ele><time>1970-01-01T00:00:00Z</time></trkpt>
<trkpt lat="46.117973" lon="7.475284"><ele>1564</ele><time>1970-01-01T00:00:00Z</time></trkpt>
<trkpt lat="46.118126" lon="7.476280"><ele>1547</ele><time>1970-01-01T00:00:00Z</time></trkpt>
<trkpt lat="46.118261" lon="7.476642"><ele>1542</ele><time>1970-01-01T00:00:00Z</time></trkpt>
<trkpt lat="46.118090" lon="7.477302"><ele>1528</ele><time>1970-01-01T00:00:00Z</time></trkpt>
<trkpt lat="46.117937" lon="7.477728"><ele>1519</ele><time>1970-01-01T00:00:00Z</time></trkpt>
<trkpt lat="46.117675" lon="7.478944"><ele>1506</ele><time>1970-01-01T00:00:00Z</time></trkpt>
<trkpt lat="46.117432" lon="7.479371"><ele>1507</ele><time>1970-01-01T00:00:00Z</time></trkpt>
<trkpt lat="46.117180" lon="7.479694"><ele>1518</ele><time>1970-01-01T00:00:00Z</time></trkpt>
<trkpt lat="46.117135" lon="7.480328"><ele>1498</ele><time>1970-01-01T00:00:00Z</time></trkpt>
<trkpt lat="46.117045" lon="7.480819"><ele>1491</ele><time>1970-01-01T00:00:00Z</time></trkpt>
<trkpt lat="46.116802" lon="7.481298"><ele>1491</ele><time>1970-01-01T00:00:00Z</time></trkpt>
<trkpt lat="46.116388" lon="7.482099"><ele>1485</ele><time>1970-01-01T00:00:00Z</time></trkpt>
<trkpt lat="46.116352" lon="7.482306"><ele>1482</ele><time>1970-01-01T00:00:00Z</time></trkpt>
<trkpt lat="46.115812" lon="7.482306"><ele>1508</ele><time>1970-01-01T00:00:00Z</time></trkpt>
<trkpt lat="46.115497" lon="7.483315"><ele>1483</ele><time>1970-01-01T00:00:00Z</time></trkpt>
<trkpt lat="46.115254" lon="7.483366"><ele>1490</ele><time>1970-01-01T00:00:00Z</time></trkpt>
<trkpt lat="46.114633" lon="7.484530"><ele>1473</ele><time>1970-01-01T00:00:00Z</time></trkpt>
<trkpt lat="46.114533" lon="7.485151"><ele>1444</ele><time>1970-01-01T00:00:00Z</time></trkpt>
<trkpt lat="46.114371" lon="7.486237"><ele>1425</ele><time>1970-01-01T00:00:00Z</time></trkpt>
<trkpt lat="46.114020" lon="7.486741"><ele>1419</ele><time>1970-01-01T00:00:00Z</time></trkpt>
<trkpt lat="46.113858" lon="7.487284"><ele>1403</ele><time>1970-01-01T00:00:00Z</time></trkpt>
<trkpt lat="46.113849" lon="7.487931"><ele>1382</ele><time>1970-01-01T00:00:00Z</time></trkpt>
<trkpt lat="46.113417" lon="7.488370"><ele>1393</ele><time>1970-01-01T00:00:00Z</time></trkpt>
<trkpt lat="46.113218" lon="7.488952"><ele>1377</ele><time>1970-01-01T00:00:00Z</time></trkpt>
<trkpt lat="46.113416" lon="7.489340"><ele>1356</ele><time>1970-01-01T00:00:00Z</time></trkpt>
<trkpt lat="46.113272" lon="7.489612"><ele>1356</ele><time>1970-01-01T00:00:00Z</time></trkpt>
<trkpt lat="46.112849" lon="7.490349"><ele>1353</ele><time>1970-01-01T00:00:00Z</time></trkpt>
<trkpt lat="46.112444" lon="7.491202"><ele>1351</ele><time>1970-01-01T00:00:00Z</time></trkpt>
<trkpt lat="46.112624" lon="7.491422"><ele>1345</ele><time>1970-01-01T00:00:00Z</time></trkpt>
<trkpt lat="46.112642" lon="7.491396"><ele>1345</ele><time>1970-01-01T00:00:00Z</time></trkpt>
<trkpt lat="46.112921" lon="7.490970"><ele>1344</ele><time>1970-01-01T00:00:00Z</time></trkpt>
<trkpt lat="46.113191" lon="7.490401"><ele>1341</ele><time>1970-01-01T00:00:00Z</time></trkpt>
<trkpt lat="46.113344" lon="7.490297"><ele>1340</ele><time>1970-01-01T00:00:00Z</time></trkpt>
<trkpt lat="46.113551" lon="7.490479"><ele>1337</ele><time>1970-01-01T00:00:00Z</time></trkpt>
<trkpt lat="46.113622" lon="7.490919"><ele>1342</ele><time>1970-01-01T00:00:00Z</time></trkpt>
<trkpt lat="46.113514" lon="7.491539"><ele>1346</ele><time>1970-01-01T00:00:00Z</time></trkpt>
<trkpt lat="46.112749" lon="7.492496"><ele>1349</ele><time>1970-01-01T00:00:00Z</time></trkpt>
<trkpt lat="46.112416" lon="7.493905"><ele>1355</ele><time>1970-01-01T00:00:00Z</time></trkpt>
<trkpt lat="46.112208" lon="7.494332"><ele>1357</ele><time>1970-01-01T00:00:00Z</time></trkpt>
<trkpt lat="46.111551" lon="7.495482"><ele>1360</ele><time>1970-01-01T00:00:00Z</time></trkpt>
<trkpt lat="46.111119" lon="7.495909"><ele>1361</ele><time>1970-01-01T00:00:00Z</time></trkpt>
<trkpt lat="46.110867" lon="7.496335"><ele>1361</ele><time>1970-01-01T00:00:00Z</time></trkpt>
<trkpt lat="46.110345" lon="7.497214"><ele>1363</ele><time>1970-01-01T00:00:00Z</time></trkpt>
<trkpt lat="46.110273" lon="7.497719"><ele>1363</ele><time>1970-01-01T00:00:00Z</time></trkpt>
<trkpt lat="46.110443" lon="7.498391"><ele>1366</ele><time>1970-01-01T00:00:00Z</time></trkpt>
<trkpt lat="46.110434" lon="7.498611"><ele>1368</ele><time>1970-01-01T00:00:00Z</time></trkpt>
<trkpt lat="46.110146" lon="7.498999"><ele>1370</ele><time>1970-01-01T00:00:00Z</time></trkpt>
<trkpt lat="46.109768" lon="7.499373"><ele>1374</ele><time>1970-01-01T00:00:00Z</time></trkpt>
<trkpt lat="46.109399" lon="7.499502"><ele>1376</ele><time>1970-01-01T00:00:00Z</time></trkpt>
<trkpt lat="46.109444" lon="7.499761"><ele>1376</ele><time>1970-01-01T00:00:00Z</time></trkpt>
<trkpt lat="46.110263" lon="7.499258"><ele>1374</ele><time>1970-01-01T00:00:00Z</time></trkpt>
<trkpt lat="46.111100" lon="7.498314"><ele>1373</ele><time>1970-01-01T00:00:00Z</time></trkpt>
<trkpt lat="46.112144" lon="7.497307"><ele>1373</ele><time>1970-01-01T00:00:00Z</time></trkpt>
<trkpt lat="46.112846" lon="7.495704"><ele>1376</ele><time>1970-01-01T00:00:00Z</time></trkpt>
<trkpt lat="46.113171" lon="7.495057"><ele>1376</ele><time>1970-01-01T00:00:00Z</time></trkpt>
<trkpt lat="46.113378" lon="7.494294"><ele>1380</ele><time>1970-01-01T00:00:00Z</time></trkpt>
<trkpt lat="46.114044" lon="7.493040"><ele>1386</ele><time>1970-01-01T00:00:00Z</time></trkpt>
<trkpt lat="46.115250" lon="7.491256"><ele>1392</ele><time>1970-01-01T00:00:00Z</time></trkpt>
<trkpt lat="46.115475" lon="7.490882"><ele>1391</ele><time>1970-01-01T00:00:00Z</time></trkpt>
<trkpt lat="46.115646" lon="7.490998"><ele>1394</ele><time>1970-01-01T00:00:00Z</time></trkpt>
<trkpt lat="46.115997" lon="7.491387"><ele>1400</ele><time>1970-01-01T00:00:00Z</time></trkpt>
<trkpt lat="46.116708" lon="7.490585"><ele>1405</ele><time>1970-01-01T00:00:00Z</time></trkpt>
<trkpt lat="46.117113" lon="7.490327"><ele>1408</ele><time>1970-01-01T00:00:00Z</time></trkpt>
<trkpt lat="46.118211" lon="7.489811"><ele>1410</ele><time>1970-01-01T00:00:00Z</time></trkpt>
<trkpt lat="46.118462" lon="7.489966"><ele>1413</ele><time>1970-01-01T00:00:00Z</time></trkpt>
<trkpt lat="46.119713" lon="7.489527"><ele>1423</ele><time>1970-01-01T00:00:00Z</time></trkpt>
<trkpt lat="46.120064" lon="7.489191"><ele>1426</ele><time>1970-01-01T00:00:00Z</time></trkpt>
<trkpt lat="46.120289" lon="7.489243"><ele>1429</ele><time>1970-01-01T00:00:00Z</time></trkpt>
<trkpt lat="46.119974" lon="7.489670"><ele>1429</ele><time>1970-01-01T00:00:00Z</time></trkpt>
<trkpt lat="46.119713" lon="7.490291"><ele>1434</ele><time>1970-01-01T00:00:00Z</time></trkpt>
<trkpt lat="46.119587" lon="7.490614"><ele>1439</ele><time>1970-01-01T00:00:00Z</time></trkpt>
<trkpt lat="46.119218" lon="7.490795"><ele>1441</ele><time>1970-01-01T00:00:00Z</time></trkpt>
<trkpt lat="46.118336" lon="7.491880"><ele>1450</ele><time>1970-01-01T00:00:00Z</time></trkpt>
<trkpt lat="46.117642" lon="7.492811"><ele>1457</ele><time>1970-01-01T00:00:00Z</time></trkpt>
<trkpt lat="46.117435" lon="7.493794"><ele>1463</ele><time>1970-01-01T00:00:00Z</time></trkpt>
<trkpt lat="46.117525" lon="7.493962"><ele>1467</ele><time>1970-01-01T00:00:00Z</time></trkpt>
<trkpt lat="46.117768" lon="7.493458"><ele>1470</ele><time>1970-01-01T00:00:00Z</time></trkpt>
<trkpt lat="46.117867" lon="7.493277"><ele>1470</ele><time>1970-01-01T00:00:00Z</time></trkpt>
<trkpt lat="46.118137" lon="7.493161"><ele>1475</ele><time>1970-01-01T00:00:00Z</time></trkpt>
<trkpt lat="46.118632" lon="7.493122"><ele>1483</ele><time>1970-01-01T00:00:00Z</time></trkpt>
<trkpt lat="46.119757" lon="7.492593"><ele>1496</ele><time>1970-01-01T00:00:00Z</time></trkpt>
<trkpt lat="46.120036" lon="7.492154"><ele>1500</ele><time>1970-01-01T00:00:00Z</time></trkpt>
<trkpt lat="46.120198" lon="7.491805"><ele>1502</ele><time>1970-01-01T00:00:00Z</time></trkpt>
<trkpt lat="46.120288" lon="7.491662"><ele>1504</ele><time>1970-01-01T00:00:00Z</time></trkpt>
<trkpt lat="46.120971" lon="7.491417"><ele>1514</ele><time>1970-01-01T00:00:00Z</time></trkpt>
<trkpt lat="46.121574" lon="7.490926"><ele>1523</ele><time>1970-01-01T00:00:00Z</time></trkpt>
<trkpt lat="46.122375" lon="7.490629"><ele>1530</ele><time>1970-01-01T00:00:00Z</time></trkpt>
<trkpt lat="46.122654" lon="7.490811"><ele>1544</ele><time>1970-01-01T00:00:00Z</time></trkpt>
<trkpt lat="46.123563" lon="7.490669"><ele>1538</ele><time>1970-01-01T00:00:00Z</time></trkpt>
<trkpt lat="46.123707" lon="7.490411"><ele>1540</ele><time>1970-01-01T00:00:00Z</time></trkpt>
<trkpt lat="46.123419" lon="7.489440"><ele>1542</ele><time>1970-01-01T00:00:00Z</time></trkpt>
<trkpt lat="46.123419" lon="7.488897"><ele>1552</ele><time>1970-01-01T00:00:00Z</time></trkpt>
<trkpt lat="46.123564" lon="7.487707"><ele>1558</ele><time>1970-01-01T00:00:00Z</time></trkpt>
<trkpt lat="46.123807" lon="7.487008"><ele>1566</ele><time>1970-01-01T00:00:00Z</time></trkpt>
<trkpt lat="46.123960" lon="7.487151"><ele>1570</ele><time>1970-01-01T00:00:00Z</time></trkpt>
<trkpt lat="46.124158" lon="7.487177"><ele>1572</ele><time>1970-01-01T00:00:00Z</time></trkpt>
<trkpt lat="46.124500" lon="7.487203"><ele>1577</ele><time>1970-01-01T00:00:00Z</time></trkpt>
<trkpt lat="46.124374" lon="7.487319"><ele>1579</ele><time>1970-01-01T00:00:00Z</time></trkpt>
<trkpt lat="46.124149" lon="7.487384"><ele>1579</ele><time>1970-01-01T00:00:00Z</time></trkpt>
<trkpt lat="46.123924" lon="7.487552"><ele>1577</ele><time>1970-01-01T00:00:00Z</time></trkpt>
<trkpt lat="46.123843" lon="7.488043"><ele>1579</ele><time>1970-01-01T00:00:00Z</time></trkpt>
<trkpt lat="46.123833" lon="7.488535"><ele>1584</ele><time>1970-01-01T00:00:00Z</time></trkpt>
<trkpt lat="46.123914" lon="7.488897"><ele>1589</ele><time>1970-01-01T00:00:00Z</time></trkpt>
<trkpt lat="46.124220" lon="7.489389"><ele>1594</ele><time>1970-01-01T00:00:00Z</time></trkpt>
<trkpt lat="46.124363" lon="7.489959"><ele>1595</ele><time>1970-01-01T00:00:00Z</time></trkpt>
<trkpt lat="46.124741" lon="7.490787"><ele>1603</ele><time>1970-01-01T00:00:00Z</time></trkpt>
<trkpt lat="46.124849" lon="7.490619"><ele>1609</ele><time>1970-01-01T00:00:00Z</time></trkpt>
<trkpt lat="46.124643" lon="7.489364"><ele>1619</ele><time>1970-01-01T00:00:00Z</time></trkpt>
<trkpt lat="46.124445" lon="7.488833"><ele>1622</ele><time>1970-01-01T00:00:00Z</time></trkpt>
<trkpt lat="46.124697" lon="7.488251"><ele>1629</ele><time>1970-01-01T00:00:00Z</time></trkpt>
<trkpt lat="46.124850" lon="7.488238"><ele>1635</ele><time>1970-01-01T00:00:00Z</time></trkpt>
<trkpt lat="46.124679" lon="7.488523"><ele>1633</ele><time>1970-01-01T00:00:00Z</time></trkpt>
<trkpt lat="46.124697" lon="7.488756"><ele>1635</ele><time>1970-01-01T00:00:00Z</time></trkpt>
<trkpt lat="46.124823" lon="7.488484"><ele>1641</ele><time>1970-01-01T00:00:00Z</time></trkpt>
<trkpt lat="46.125147" lon="7.488045"><ele>1644</ele><time>1970-01-01T00:00:00Z</time></trkpt>
<trkpt lat="46.125687" lon="7.487502"><ele>1652</ele><time>1970-01-01T00:00:00Z</time></trkpt>
<trkpt lat="46.126101" lon="7.487528"><ele>1660</ele><time>1970-01-01T00:00:00Z</time></trkpt>
<trkpt lat="46.126470" lon="7.486791"><ele>1659</ele><time>1970-01-01T00:00:00Z</time></trkpt>
<trkpt lat="46.126938" lon="7.486313"><ele>1663</ele><time>1970-01-01T00:00:00Z</time></trkpt>
<trkpt lat="46.127514" lon="7.486223"><ele>1680</ele><time>1970-01-01T00:00:00Z</time></trkpt>
<trkpt lat="46.127712" lon="7.485692"><ele>1672</ele><time>1970-01-01T00:00:00Z</time></trkpt>
<trkpt lat="46.127811" lon="7.485071"><ele>1675</ele><time>1970-01-01T00:00:00Z</time></trkpt>
<trkpt lat="46.128099" lon="7.484670"><ele>1678</ele><time>1970-01-01T00:00:00Z</time></trkpt>
<trkpt lat="46.128369" lon="7.484373"><ele>1684</ele><time>1970-01-01T00:00:00Z</time></trkpt>
<trkpt lat="46.128441" lon="7.484011"><ele>1687</ele><time>1970-01-01T00:00:00Z</time></trkpt>
<trkpt lat="46.128360" lon="7.483778"><ele>1686</ele><time>1970-01-01T00:00:00Z</time></trkpt>
<trkpt lat="46.128756" lon="7.483455"><ele>1692</ele><time>1970-01-01T00:00:00Z</time></trkpt>
<trkpt lat="46.128999" lon="7.482976"><ele>1699</ele><time>1970-01-01T00:00:00Z</time></trkpt>
<trkpt lat="46.129206" lon="7.482355"><ele>1697</ele><time>1970-01-01T00:00:00Z</time></trkpt>
<trkpt lat="46.129350" lon="7.482291"><ele>1705</ele><time>1970-01-01T00:00:00Z</time></trkpt>
<trkpt lat="46.129107" lon="7.483015"><ele>1704</ele><time>1970-01-01T00:00:00Z</time></trkpt>
<trkpt lat="46.129313" lon="7.484193"><ele>1720</ele><time>1970-01-01T00:00:00Z</time></trkpt>
<trkpt lat="46.129313" lon="7.484969"><ele>1727</ele><time>1970-01-01T00:00:00Z</time></trkpt>
<trkpt lat="46.129214" lon="7.485292"><ele>1729</ele><time>1970-01-01T00:00:00Z</time></trkpt>
<trkpt lat="46.129349" lon="7.485383"><ele>1734</ele><time>1970-01-01T00:00:00Z</time></trkpt>
<trkpt lat="46.129646" lon="7.484542"><ele>1740</ele><time>1970-01-01T00:00:00Z</time></trkpt>
<trkpt lat="46.129853" lon="7.483779"><ele>1743</ele><time>1970-01-01T00:00:00Z</time></trkpt>
<trkpt lat="46.130258" lon="7.483249"><ele>1747</ele><time>1970-01-01T00:00:00Z</time></trkpt>
<trkpt lat="46.130465" lon="7.482861"><ele>1751</ele><time>1970-01-01T00:00:00Z</time></trkpt>
<trkpt lat="46.130790" lon="7.482150"><ele>1754</ele><time>1970-01-01T00:00:00Z</time></trkpt>
<trkpt lat="46.130772" lon="7.482150"><ele>1754</ele><time>1970-01-01T00:00:00Z</time></trkpt>
<trkpt lat="46.130942" lon="7.482279"><ele>1760</ele><time>1970-01-01T00:00:00Z</time></trkpt>
<trkpt lat="46.131815" lon="7.481918"><ele>1748</ele><time>1970-01-01T00:00:00Z</time></trkpt>
<trkpt lat="46.132382" lon="7.481905"><ele>1752</ele><time>1970-01-01T00:00:00Z</time></trkpt>
<trkpt lat="46.132769" lon="7.481828"><ele>1752</ele><time>1970-01-01T00:00:00Z</time></trkpt>
<trkpt lat="46.133228" lon="7.481595"><ele>1747</ele><time>1970-01-01T00:00:00Z</time></trkpt>
<trkpt lat="46.133902" lon="7.481285"><ele>1746</ele><time>1970-01-01T00:00:00Z</time></trkpt>
<trkpt lat="46.133884" lon="7.480897"><ele>1727</ele><time>1970-01-01T00:00:00Z</time></trkpt>
<trkpt lat="46.134712" lon="7.480018"><ele>1730</ele><time>1970-01-01T00:00:00Z</time></trkpt>
<trkpt lat="46.135117" lon="7.479565"><ele>1723</ele><time>1970-01-01T00:00:00Z</time></trkpt>
<trkpt lat="46.135945" lon="7.479359"><ele>1730</ele><time>1970-01-01T00:00:00Z</time></trkpt>
<trkpt lat="46.136359" lon="7.479476"><ele>1742</ele><time>1970-01-01T00:00:00Z</time></trkpt>
<trkpt lat="46.136962" lon="7.479191"><ele>1738</ele><time>1970-01-01T00:00:00Z</time></trkpt>
<trkpt lat="46.137654" lon="7.479153"><ele>1736</ele><time>1970-01-01T00:00:00Z</time></trkpt>
<trkpt lat="46.138257" lon="7.478662"><ele>1728</ele><time>1970-01-01T00:00:00Z</time></trkpt>
<trkpt lat="46.138374" lon="7.478364"><ele>1720</ele><time>1970-01-01T00:00:00Z</time></trkpt>
<trkpt lat="46.138707" lon="7.478119"><ele>1721</ele><time>1970-01-01T00:00:00Z</time></trkpt>
<trkpt lat="46.139328" lon="7.477524"><ele>1712</ele><time>1970-01-01T00:00:00Z</time></trkpt>
<trkpt lat="46.138608" lon="7.477911"><ele>1705</ele><time>1970-01-01T00:00:00Z</time></trkpt>
<trkpt lat="46.138086" lon="7.477937"><ele>1685</ele><time>1970-01-01T00:00:00Z</time></trkpt>
<trkpt lat="46.138653" lon="7.477497"><ele>1690</ele><time>1970-01-01T00:00:00Z</time></trkpt>
<trkpt lat="46.139076" lon="7.476644"><ele>1657</ele><time>1970-01-01T00:00:00Z</time></trkpt>
<trkpt lat="46.139436" lon="7.476398"><ele>1659</ele><time>1970-01-01T00:00:00Z</time></trkpt>
<trkpt lat="46.139805" lon="7.475984"><ele>1644</ele><time>1970-01-01T00:00:00Z</time></trkpt>
<trkpt lat="46.140768" lon="7.474497"><ele>1612</ele><time>1970-01-01T00:00:00Z</time></trkpt>
<trkpt lat="46.141389" lon="7.474497"><ele>1609</ele><time>1970-01-01T00:00:00Z</time></trkpt>
<trkpt lat="46.141803" lon="7.474122"><ele>1604</ele><time>1970-01-01T00:00:00Z</time></trkpt>
<trkpt lat="46.142262" lon="7.473993"><ele>1601</ele><time>1970-01-01T00:00:00Z</time></trkpt>
<trkpt lat="46.143080" lon="7.473372"><ele>1586</ele><time>1970-01-01T00:00:00Z</time></trkpt>
<trkpt lat="46.143638" lon="7.472467"><ele>1574</ele><time>1970-01-01T00:00:00Z</time></trkpt>
<trkpt lat="46.144070" lon="7.471962"><ele>1564</ele><time>1970-01-01T00:00:00Z</time></trkpt>
<trkpt lat="46.144349" lon="7.471548"><ele>1553</ele><time>1970-01-01T00:00:00Z</time></trkpt>
<trkpt lat="46.145096" lon="7.470927"><ele>1536</ele><time>1970-01-01T00:00:00Z</time></trkpt>
<trkpt lat="46.145429" lon="7.470384"><ele>1531</ele><time>1970-01-01T00:00:00Z</time></trkpt>
<trkpt lat="46.145555" lon="7.470294"><ele>1527</ele><time>1970-01-01T00:00:00Z</time></trkpt>
<trkpt lat="46.145960" lon="7.470656"><ele>1524</ele><time>1970-01-01T00:00:00Z</time></trkpt>
<trkpt lat="46.145987" lon="7.470397"><ele>1514</ele><time>1970-01-01T00:00:00Z</time></trkpt>
<trkpt lat="46.146104" lon="7.470540"><ele>1517</ele><time>1970-01-01T00:00:00Z</time></trkpt>
<trkpt lat="46.146706" lon="7.471343"><ele>1502</ele><time>1970-01-01T00:00:00Z</time></trkpt>
<trkpt lat="46.146850" lon="7.471097"><ele>1482</ele><time>1970-01-01T00:00:00Z</time></trkpt>
<trkpt lat="46.147093" lon="7.471640"><ele>1488</ele><time>1970-01-01T00:00:00Z</time></trkpt>
<trkpt lat="46.147345" lon="7.470773"><ele>1472</ele><time>1970-01-01T00:00:00Z</time></trkpt>
<trkpt lat="46.147570" lon="7.470152"><ele>1475</ele><time>1970-01-01T00:00:00Z</time></trkpt>
<trkpt lat="46.147885" lon="7.469596"><ele>1477</ele><time>1970-01-01T00:00:00Z</time></trkpt>
<trkpt lat="46.148290" lon="7.469079"><ele>1491</ele><time>1970-01-01T00:00:00Z</time></trkpt>
<trkpt lat="46.148416" lon="7.468470"><ele>1494</ele><time>1970-01-01T00:00:00Z</time></trkpt>
<trkpt lat="46.148524" lon="7.468263"><ele>1500</ele><time>1970-01-01T00:00:00Z</time></trkpt>
<trkpt lat="46.148803" lon="7.467875"><ele>1512</ele><time>1970-01-01T00:00:00Z</time></trkpt>
<trkpt lat="46.148893" lon="7.467280"><ele>1510</ele><time>1970-01-01T00:00:00Z</time></trkpt>
<trkpt lat="46.149118" lon="7.466866"><ele>1517</ele><time>1970-01-01T00:00:00Z</time></trkpt>
<trkpt lat="46.149343" lon="7.466685"><ele>1518</ele><time>1970-01-01T00:00:00Z</time></trkpt>
<trkpt lat="46.149298" lon="7.467837"><ele>1546</ele><time>1970-01-01T00:00:00Z</time></trkpt>
<trkpt lat="46.149549" lon="7.469791"><ele>1585</ele><time>1970-01-01T00:00:00Z</time></trkpt>
<trkpt lat="46.149342" lon="7.471914"><ele>1625</ele><time>1970-01-01T00:00:00Z</time></trkpt>
<trkpt lat="46.150044" lon="7.471099"><ele>1634</ele><time>1970-01-01T00:00:00Z</time></trkpt>
<trkpt lat="46.150314" lon="7.470840"><ele>1640</ele><time>1970-01-01T00:00:00Z</time></trkpt>
<trkpt lat="46.150431" lon="7.470516"><ele>1644</ele><time>1970-01-01T00:00:00Z</time></trkpt>
<trkpt lat="46.150449" lon="7.469856"><ele>1642</ele><time>1970-01-01T00:00:00Z</time></trkpt>
<trkpt lat="46.150602" lon="7.469585"><ele>1644</ele><time>1970-01-01T00:00:00Z</time></trkpt>
<trkpt lat="46.150971" lon="7.469585"><ele>1640</ele><time>1970-01-01T00:00:00Z</time></trkpt>
<trkpt lat="46.151339" lon="7.469533"><ele>1642</ele><time>1970-01-01T00:00:00Z</time></trkpt>
<trkpt lat="46.151546" lon="7.469443"><ele>1642</ele><time>1970-01-01T00:00:00Z</time></trkpt>
<trkpt lat="46.152023" lon="7.469262"><ele>1643</ele><time>1970-01-01T00:00:00Z</time></trkpt>
<trkpt lat="46.152248" lon="7.469171"><ele>1646</ele><time>1970-01-01T00:00:00Z</time></trkpt>
<trkpt lat="46.152410" lon="7.468938"><ele>1648</ele><time>1970-01-01T00:00:00Z</time></trkpt>
<trkpt lat="46.152563" lon="7.468498"><ele>1644</ele><time>1970-01-01T00:00:00Z</time></trkpt>
<trkpt lat="46.152743" lon="7.468046"><ele>1649</ele><time>1970-01-01T00:00:00Z</time></trkpt>
<trkpt lat="46.152806" lon="7.468227"><ele>1652</ele><time>1970-01-01T00:00:00Z</time></trkpt>
<trkpt lat="46.153256" lon="7.467968"><ele>1652</ele><time>1970-01-01T00:00:00Z</time></trkpt>
<trkpt lat="46.153409" lon="7.467696"><ele>1650</ele><time>1970-01-01T00:00:00Z</time></trkpt>
<trkpt lat="46.153544" lon="7.467541"><ele>1651</ele><time>1970-01-01T00:00:00Z</time></trkpt>
<trkpt lat="46.153607" lon="7.467166"><ele>1652</ele><time>1970-01-01T00:00:00Z</time></trkpt>
<trkpt lat="46.153571" lon="7.466868"><ele>1649</ele><time>1970-01-01T00:00:00Z</time></trkpt>
<trkpt lat="46.153688" lon="7.466661"><ele>1648</ele><time>1970-01-01T00:00:00Z</time></trkpt>
<trkpt lat="46.153904" lon="7.466571"><ele>1648</ele><time>1970-01-01T00:00:00Z</time></trkpt>
<trkpt lat="46.154192" lon="7.466532"><ele>1647</ele><time>1970-01-01T00:00:00Z</time></trkpt>
<trkpt lat="46.154255" lon="7.466325"><ele>1645</ele><time>1970-01-01T00:00:00Z</time></trkpt>
<trkpt lat="46.154372" lon="7.465885"><ele>1645</ele><time>1970-01-01T00:00:00Z</time></trkpt>
<trkpt lat="46.154624" lon="7.465975"><ele>1654</ele><time>1970-01-01T00:00:00Z</time></trkpt>
<trkpt lat="46.154894" lon="7.465950"><ele>1660</ele><time>1970-01-01T00:00:00Z</time></trkpt>
<trkpt lat="46.155218" lon="7.465471"><ele>1657</ele><time>1970-01-01T00:00:00Z</time></trkpt>
<trkpt lat="46.155712" lon="7.465290"><ele>1663</ele><time>1970-01-01T00:00:00Z</time></trkpt>
<trkpt lat="46.155982" lon="7.464941"><ele>1668</ele><time>1970-01-01T00:00:00Z</time></trkpt>
<trkpt lat="46.156099" lon="7.464824"><ele>1667</ele><time>1970-01-01T00:00:00Z</time></trkpt>
<trkpt lat="46.156450" lon="7.464669"><ele>1675</ele><time>1970-01-01T00:00:00Z</time></trkpt>
<trkpt lat="46.156576" lon="7.464553"><ele>1678</ele><time>1970-01-01T00:00:00Z</time></trkpt>
<trkpt lat="46.156702" lon="7.464345"><ele>1675</ele><time>1970-01-01T00:00:00Z</time></trkpt>
<trkpt lat="46.157197" lon="7.464048"><ele>1684</ele><time>1970-01-01T00:00:00Z</time></trkpt>
<trkpt lat="46.157467" lon="7.464411"><ele>1702</ele><time>1970-01-01T00:00:00Z</time></trkpt>
<trkpt lat="46.157791" lon="7.464411"><ele>1708</ele><time>1970-01-01T00:00:00Z</time></trkpt>
<trkpt lat="46.157934" lon="7.464553"><ele>1714</ele><time>1970-01-01T00:00:00Z</time></trkpt>
<trkpt lat="46.158150" lon="7.464592"><ele>1718</ele><time>1970-01-01T00:00:00Z</time></trkpt>
<trkpt lat="46.158393" lon="7.464553"><ele>1722</ele><time>1970-01-01T00:00:00Z</time></trkpt>
<trkpt lat="46.158501" lon="7.464709"><ele>1729</ele><time>1970-01-01T00:00:00Z</time></trkpt>
<trkpt lat="46.158681" lon="7.464825"><ele>1737</ele><time>1970-01-01T00:00:00Z</time></trkpt>
<trkpt lat="46.158924" lon="7.464592"><ele>1741</ele><time>1970-01-01T00:00:00Z</time></trkpt>
<trkpt lat="46.158843" lon="7.464968"><ele>1747</ele><time>1970-01-01T00:00:00Z</time></trkpt>
<trkpt lat="46.158744" lon="7.465291"><ele>1750</ele><time>1970-01-01T00:00:00Z</time></trkpt>
<trkpt lat="46.158600" lon="7.465563"><ele>1753</ele><time>1970-01-01T00:00:00Z</time></trkpt>
<trkpt lat="46.158375" lon="7.465861"><ele>1760</ele><time>1970-01-01T00:00:00Z</time></trkpt>
<trkpt lat="46.157790" lon="7.466184"><ele>1760</ele><time>1970-01-01T00:00:00Z</time></trkpt>
<trkpt lat="46.157583" lon="7.466365"><ele>1760</ele><time>1970-01-01T00:00:00Z</time></trkpt>
<trkpt lat="46.157466" lon="7.466572"><ele>1763</ele><time>1970-01-01T00:00:00Z</time></trkpt>
<trkpt lat="46.157376" lon="7.466961"><ele>1769</ele><time>1970-01-01T00:00:00Z</time></trkpt>
<trkpt lat="46.157304" lon="7.467375"><ele>1769</ele><time>1970-01-01T00:00:00Z</time></trkpt>
<trkpt lat="46.157385" lon="7.467699"><ele>1771</ele><time>1970-01-01T00:00:00Z</time></trkpt>
<trkpt lat="46.157484" lon="7.467789"><ele>1774</ele><time>1970-01-01T00:00:00Z</time></trkpt>
<trkpt lat="46.157502" lon="7.467077"><ele>1776</ele><time>1970-01-01T00:00:00Z</time></trkpt>
<trkpt lat="46.157628" lon="7.466922"><ele>1777</ele><time>1970-01-01T00:00:00Z</time></trkpt>
<trkpt lat="46.157790" lon="7.466728"><ele>1777</ele><time>1970-01-01T00:00:00Z</time></trkpt>
<trkpt lat="46.158186" lon="7.466521"><ele>1786</ele><time>1970-01-01T00:00:00Z</time></trkpt>
<trkpt lat="46.159481" lon="7.466599"><ele>1805</ele><time>1970-01-01T00:00:00Z</time></trkpt>
<trkpt lat="46.159670" lon="7.466043"><ele>1805</ele><time>1970-01-01T00:00:00Z</time></trkpt>
<trkpt lat="46.159976" lon="7.465952"><ele>1811</ele><time>1970-01-01T00:00:00Z</time></trkpt>
<trkpt lat="46.160678" lon="7.465564"><ele>1814</ele><time>1970-01-01T00:00:00Z</time></trkpt>
<trkpt lat="46.160714" lon="7.465720"><ele>1816</ele><time>1970-01-01T00:00:00Z</time></trkpt>
<trkpt lat="46.160498" lon="7.465862"><ele>1815</ele><time>1970-01-01T00:00:00Z</time></trkpt>
<trkpt lat="46.160390" lon="7.466043"><ele>1818</ele><time>1970-01-01T00:00:00Z</time></trkpt>
<trkpt lat="46.160291" lon="7.466224"><ele>1822</ele><time>1970-01-01T00:00:00Z</time></trkpt>
<trkpt lat="46.160102" lon="7.466341"><ele>1823</ele><time>1970-01-01T00:00:00Z</time></trkpt>
<trkpt lat="46.159931" lon="7.466509"><ele>1824</ele><time>1970-01-01T00:00:00Z</time></trkpt>
<trkpt lat="46.159850" lon="7.467078"><ele>1831</ele><time>1970-01-01T00:00:00Z</time></trkpt>
<trkpt lat="46.159607" lon="7.467311"><ele>1832</ele><time>1970-01-01T00:00:00Z</time></trkpt>
<trkpt lat="46.159292" lon="7.467531"><ele>1838</ele><time>1970-01-01T00:00:00Z</time></trkpt>
<trkpt lat="46.159085" lon="7.467790"><ele>1839</ele><time>1970-01-01T00:00:00Z</time></trkpt>
<trkpt lat="46.158842" lon="7.467816"><ele>1839</ele><time>1970-01-01T00:00:00Z</time></trkpt>
<trkpt lat="46.158797" lon="7.468023"><ele>1839</ele><time>1970-01-01T00:00:00Z</time></trkpt>
<trkpt lat="46.158806" lon="7.468502"><ele>1844</ele><time>1970-01-01T00:00:00Z</time></trkpt>
<trkpt lat="46.158797" lon="7.469071"><ele>1856</ele><time>1970-01-01T00:00:00Z</time></trkpt>
<trkpt lat="46.158491" lon="7.469809"><ele>1854</ele><time>1970-01-01T00:00:00Z</time></trkpt>
<trkpt lat="46.157888" lon="7.469861"><ele>1854</ele><time>1970-01-01T00:00:00Z</time></trkpt>
<trkpt lat="46.157681" lon="7.470132"><ele>1863</ele><time>1970-01-01T00:00:00Z</time></trkpt>
<trkpt lat="46.157402" lon="7.470223"><ele>1863</ele><time>1970-01-01T00:00:00Z</time></trkpt>
<trkpt lat="46.156862" lon="7.471025"><ele>1870</ele><time>1970-01-01T00:00:00Z</time></trkpt>
<trkpt lat="46.156691" lon="7.471232"><ele>1872</ele><time>1970-01-01T00:00:00Z</time></trkpt>
<trkpt lat="46.156448" lon="7.472216"><ele>1878</ele><time>1970-01-01T00:00:00Z</time></trkpt>
<trkpt lat="46.155971" lon="7.472513"><ele>1879</ele><time>1970-01-01T00:00:00Z</time></trkpt>
<trkpt lat="46.155629" lon="7.473070"><ele>1889</ele><time>1970-01-01T00:00:00Z</time></trkpt>
<trkpt lat="46.155458" lon="7.473898"><ele>1893</ele><time>1970-01-01T00:00:00Z</time></trkpt>
<trkpt lat="46.155314" lon="7.474170"><ele>1893</ele><time>1970-01-01T00:00:00Z</time></trkpt>
<trkpt lat="46.155008" lon="7.474169"><ele>1894</ele><time>1970-01-01T00:00:00Z</time></trkpt>
<trkpt lat="46.154549" lon="7.474221"><ele>1892</ele><time>1970-01-01T00:00:00Z</time></trkpt>
<trkpt lat="46.154513" lon="7.474493"><ele>1895</ele><time>1970-01-01T00:00:00Z</time></trkpt>
<trkpt lat="46.154801" lon="7.474325"><ele>1896</ele><time>1970-01-01T00:00:00Z</time></trkpt>
<trkpt lat="46.155251" lon="7.474377"><ele>1898</ele><time>1970-01-01T00:00:00Z</time></trkpt>
<trkpt lat="46.155476" lon="7.474377"><ele>1905</ele><time>1970-01-01T00:00:00Z</time></trkpt>
<trkpt lat="46.155845" lon="7.473820"><ele>1914</ele><time>1970-01-01T00:00:00Z</time></trkpt>
<trkpt lat="46.155980" lon="7.473393"><ele>1914</ele><time>1970-01-01T00:00:00Z</time></trkpt>
<trkpt lat="46.156268" lon="7.473225"><ele>1917</ele><time>1970-01-01T00:00:00Z</time></trkpt>
<trkpt lat="46.156547" lon="7.473225"><ele>1922</ele><time>1970-01-01T00:00:00Z</time></trkpt>
<trkpt lat="46.156880" lon="7.473096"><ele>1927</ele><time>1970-01-01T00:00:00Z</time></trkpt>
<trkpt lat="46.157114" lon="7.472721"><ele>1931</ele><time>1970-01-01T00:00:00Z</time></trkpt>
<trkpt lat="46.157312" lon="7.471970"><ele>1927</ele><time>1970-01-01T00:00:00Z</time></trkpt>
<trkpt lat="46.157564" lon="7.471893"><ele>1933</ele><time>1970-01-01T00:00:00Z</time></trkpt>
<trkpt lat="46.157833" lon="7.472152"><ele>1944</ele><time>1970-01-01T00:00:00Z</time></trkpt>
<trkpt lat="46.158247" lon="7.472036"><ele>1945</ele><time>1970-01-01T00:00:00Z</time></trkpt>
<trkpt lat="46.158526" lon="7.471997"><ele>1947</ele><time>1970-01-01T00:00:00Z</time></trkpt>
<trkpt lat="46.159066" lon="7.472360"><ele>1956</ele><time>1970-01-01T00:00:00Z</time></trkpt>
<trkpt lat="46.159372" lon="7.472308"><ele>1959</ele><time>1970-01-01T00:00:00Z</time></trkpt>
<trkpt lat="46.159624" lon="7.472088"><ele>1962</ele><time>1970-01-01T00:00:00Z</time></trkpt>
<trkpt lat="46.159831" lon="7.471972"><ele>1963</ele><time>1970-01-01T00:00:00Z</time></trkpt>
<trkpt lat="46.160082" lon="7.471920"><ele>1966</ele><time>1970-01-01T00:00:00Z</time></trkpt>
<trkpt lat="46.160244" lon="7.471946"><ele>1970</ele><time>1970-01-01T00:00:00Z</time></trkpt>
<trkpt lat="46.160433" lon="7.471791"><ele>1973</ele><time>1970-01-01T00:00:00Z</time></trkpt>
<trkpt lat="46.160487" lon="7.471416"><ele>1974</ele><time>1970-01-01T00:00:00Z</time></trkpt>
<trkpt lat="46.160595" lon="7.471079"><ele>1973</ele><time>1970-01-01T00:00:00Z</time></trkpt>
<trkpt lat="46.160901" lon="7.470911"><ele>1979</ele><time>1970-01-01T00:00:00Z</time></trkpt>
<trkpt lat="46.161270" lon="7.470963"><ele>1986</ele><time>1970-01-01T00:00:00Z</time></trkpt>
<trkpt lat="46.161423" lon="7.470795"><ele>1985</ele><time>1970-01-01T00:00:00Z</time></trkpt>
<trkpt lat="46.161999" lon="7.470704"><ele>1993</ele><time>1970-01-01T00:00:00Z</time></trkpt>
<trkpt lat="46.162143" lon="7.470497"><ele>1990</ele><time>1970-01-01T00:00:00Z</time></trkpt>
<trkpt lat="46.162485" lon="7.470433"><ele>1998</ele><time>1970-01-01T00:00:00Z</time></trkpt>
<trkpt lat="46.162818" lon="7.470161"><ele>1999</ele><time>1970-01-01T00:00:00Z</time></trkpt>
<trkpt lat="46.163357" lon="7.469812"><ele>2009</ele><time>1970-01-01T00:00:00Z</time></trkpt>
<trkpt lat="46.163780" lon="7.469631"><ele>2014</ele><time>1970-01-01T00:00:00Z</time></trkpt>
<trkpt lat="46.164194" lon="7.469450"><ele>2018</ele><time>1970-01-01T00:00:00Z</time></trkpt>
<trkpt lat="46.164626" lon="7.469450"><ele>2022</ele><time>1970-01-01T00:00:00Z</time></trkpt>
<trkpt lat="46.165130" lon="7.469567"><ele>2029</ele><time>1970-01-01T00:00:00Z</time></trkpt>
<trkpt lat="46.164545" lon="7.469813"><ele>2039</ele><time>1970-01-01T00:00:00Z</time></trkpt>
<trkpt lat="46.164347" lon="7.469968"><ele>2042</ele><time>1970-01-01T00:00:00Z</time></trkpt>
<trkpt lat="46.163924" lon="7.470434"><ele>2049</ele><time>1970-01-01T00:00:00Z</time></trkpt>
<trkpt lat="46.163618" lon="7.470887"><ele>2054</ele><time>1970-01-01T00:00:00Z</time></trkpt>
<trkpt lat="46.163222" lon="7.471081"><ele>2057</ele><time>1970-01-01T00:00:00Z</time></trkpt>
<trkpt lat="46.162961" lon="7.471508"><ele>2062</ele><time>1970-01-01T00:00:00Z</time></trkpt>
<trkpt lat="46.162646" lon="7.471999"><ele>2064</ele><time>1970-01-01T00:00:00Z</time></trkpt>
<trkpt lat="46.162259" lon="7.472569"><ele>2068</ele><time>1970-01-01T00:00:00Z</time></trkpt>
<trkpt lat="46.161926" lon="7.473423"><ele>2075</ele><time>1970-01-01T00:00:00Z</time></trkpt>
<trkpt lat="46.161170" lon="7.473759"><ele>2084</ele><time>1970-01-01T00:00:00Z</time></trkpt>
<trkpt lat="46.160792" lon="7.474199"><ele>2091</ele><time>1970-01-01T00:00:00Z</time></trkpt>
<trkpt lat="46.160378" lon="7.475092"><ele>2099</ele><time>1970-01-01T00:00:00Z</time></trkpt>
<trkpt lat="46.160135" lon="7.475739"><ele>2102</ele><time>1970-01-01T00:00:00Z</time></trkpt>
<trkpt lat="46.159991" lon="7.476516"><ele>2110</ele><time>1970-01-01T00:00:00Z</time></trkpt>
<trkpt lat="46.159766" lon="7.476567"><ele>2114</ele><time>1970-01-01T00:00:00Z</time></trkpt>
<trkpt lat="46.159433" lon="7.476425"><ele>2121</ele><time>1970-01-01T00:00:00Z</time></trkpt>
<trkpt lat="46.159128" lon="7.476256"><ele>2120</ele><time>1970-01-01T00:00:00Z</time></trkpt>
<trkpt lat="46.158480" lon="7.476541"><ele>2130</ele><time>1970-01-01T00:00:00Z</time></trkpt>
<trkpt lat="46.157931" lon="7.476929"><ele>2135</ele><time>1970-01-01T00:00:00Z</time></trkpt>
<trkpt lat="46.157787" lon="7.477084"><ele>2131</ele><time>1970-01-01T00:00:00Z</time></trkpt>
<trkpt lat="46.157805" lon="7.477576"><ele>2142</ele><time>1970-01-01T00:00:00Z</time></trkpt>
<trkpt lat="46.157679" lon="7.478029"><ele>2146</ele><time>1970-01-01T00:00:00Z</time></trkpt>
<trkpt lat="46.157508" lon="7.478598"><ele>2146</ele><time>1970-01-01T00:00:00Z</time></trkpt>
<trkpt lat="46.157039" lon="7.479685"><ele>2153</ele><time>1970-01-01T00:00:00Z</time></trkpt>
<trkpt lat="46.156751" lon="7.479931"><ele>2150</ele><time>1970-01-01T00:00:00Z</time></trkpt>
<trkpt lat="46.156508" lon="7.480513"><ele>2154</ele><time>1970-01-01T00:00:00Z</time></trkpt>
<trkpt lat="46.156499" lon="7.480876"><ele>2159</ele><time>1970-01-01T00:00:00Z</time></trkpt>
<trkpt lat="46.156256" lon="7.481173"><ele>2157</ele><time>1970-01-01T00:00:00Z</time></trkpt>
<trkpt lat="46.156220" lon="7.481432"><ele>2160</ele><time>1970-01-01T00:00:00Z</time></trkpt>
<trkpt lat="46.156076" lon="7.481678"><ele>2160</ele><time>1970-01-01T00:00:00Z</time></trkpt>
<trkpt lat="46.155788" lon="7.481975"><ele>2164</ele><time>1970-01-01T00:00:00Z</time></trkpt>
<trkpt lat="46.155698" lon="7.481950"><ele>2161</ele><time>1970-01-01T00:00:00Z</time></trkpt>
<trkpt lat="46.155509" lon="7.482156"><ele>2161</ele><time>1970-01-01T00:00:00Z</time></trkpt>
<trkpt lat="46.155230" lon="7.482778"><ele>2165</ele><time>1970-01-01T00:00:00Z</time></trkpt>
<trkpt lat="46.155221" lon="7.482985"><ele>2170</ele><time>1970-01-01T00:00:00Z</time></trkpt>
<trkpt lat="46.155185" lon="7.484085"><ele>2178</ele><time>1970-01-01T00:00:00Z</time></trkpt>
<trkpt lat="46.155328" lon="7.484978"><ele>2189</ele><time>1970-01-01T00:00:00Z</time></trkpt>
<trkpt lat="46.155247" lon="7.485237"><ele>2188</ele><time>1970-01-01T00:00:00Z</time></trkpt>
<trkpt lat="46.155139" lon="7.485535"><ele>2188</ele><time>1970-01-01T00:00:00Z</time></trkpt>
<trkpt lat="46.155265" lon="7.485923"><ele>2197</ele><time>1970-01-01T00:00:00Z</time></trkpt>
<trkpt lat="46.155220" lon="7.486311"><ele>2194</ele><time>1970-01-01T00:00:00Z</time></trkpt>
<trkpt lat="46.155040" lon="7.486907"><ele>2201</ele><time>1970-01-01T00:00:00Z</time></trkpt>
<trkpt lat="46.154877" lon="7.487140"><ele>2198</ele><time>1970-01-01T00:00:00Z</time></trkpt>
<trkpt lat="46.154976" lon="7.487994"><ele>2207</ele><time>1970-01-01T00:00:00Z</time></trkpt>
<trkpt lat="46.154814" lon="7.488408"><ele>2206</ele><time>1970-01-01T00:00:00Z</time></trkpt>
<trkpt lat="46.154589" lon="7.488537"><ele>2208</ele><time>1970-01-01T00:00:00Z</time></trkpt>
<trkpt lat="46.154373" lon="7.488563"><ele>2206</ele><time>1970-01-01T00:00:00Z</time></trkpt>
<trkpt lat="46.154229" lon="7.488861"><ele>2211</ele><time>1970-01-01T00:00:00Z</time></trkpt>
<trkpt lat="46.154067" lon="7.489650"><ele>2218</ele><time>1970-01-01T00:00:00Z</time></trkpt>
<trkpt lat="46.154013" lon="7.490090"><ele>2221</ele><time>1970-01-01T00:00:00Z</time></trkpt>
<trkpt lat="46.153761" lon="7.490323"><ele>2219</ele><time>1970-01-01T00:00:00Z</time></trkpt>
<trkpt lat="46.153572" lon="7.490439"><ele>2219</ele><time>1970-01-01T00:00:00Z</time></trkpt>
<trkpt lat="46.153473" lon="7.490827"><ele>2227</ele><time>1970-01-01T00:00:00Z</time></trkpt>
<trkpt lat="46.152564" lon="7.491836"><ele>2236</ele><time>1970-01-01T00:00:00Z</time></trkpt>
<trkpt lat="46.152401" lon="7.492082"><ele>2239</ele><time>1970-01-01T00:00:00Z</time></trkpt>
<trkpt lat="46.152131" lon="7.493376"><ele>2251</ele><time>1970-01-01T00:00:00Z</time></trkpt>
<trkpt lat="46.152176" lon="7.494269"><ele>2259</ele><time>1970-01-01T00:00:00Z</time></trkpt>
<trkpt lat="46.152256" lon="7.494683"><ele>2264</ele><time>1970-01-01T00:00:00Z</time></trkpt>
<trkpt lat="46.152292" lon="7.494891"><ele>2267</ele><time>1970-01-01T00:00:00Z</time></trkpt>
<trkpt lat="46.152175" lon="7.495214"><ele>2267</ele><time>1970-01-01T00:00:00Z</time></trkpt>
<trkpt lat="46.152022" lon="7.495279"><ele>2264</ele><time>1970-01-01T00:00:00Z</time></trkpt>
<trkpt lat="46.151887" lon="7.495576"><ele>2270</ele><time>1970-01-01T00:00:00Z</time></trkpt>
<trkpt lat="46.151878" lon="7.495809"><ele>2274</ele><time>1970-01-01T00:00:00Z</time></trkpt>
<trkpt lat="46.151923" lon="7.496172"><ele>2277</ele><time>1970-01-01T00:00:00Z</time></trkpt>
<trkpt lat="46.152030" lon="7.497388"><ele>2288</ele><time>1970-01-01T00:00:00Z</time></trkpt>
<trkpt lat="46.151877" lon="7.498191"><ele>2291</ele><time>1970-01-01T00:00:00Z</time></trkpt>
<trkpt lat="46.152147" lon="7.497829"><ele>2297</ele><time>1970-01-01T00:00:00Z</time></trkpt>
<trkpt lat="46.152355" lon="7.496146"><ele>2304</ele><time>1970-01-01T00:00:00Z</time></trkpt>
<trkpt lat="46.152624" lon="7.495939"><ele>2311</ele><time>1970-01-01T00:00:00Z</time></trkpt>
<trkpt lat="46.152751" lon="7.495732"><ele>2314</ele><time>1970-01-01T00:00:00Z</time></trkpt>
<trkpt lat="46.152931" lon="7.495396"><ele>2316</ele><time>1970-01-01T00:00:00Z</time></trkpt>
<trkpt lat="46.153102" lon="7.494775"><ele>2320</ele><time>1970-01-01T00:00:00Z</time></trkpt>
<trkpt lat="46.153120" lon="7.494063"><ele>2323</ele><time>1970-01-01T00:00:00Z</time></trkpt>
<trkpt lat="46.153219" lon="7.493739"><ele>2324</ele><time>1970-01-01T00:00:00Z</time></trkpt>
<trkpt lat="46.155784" lon="7.492292"><ele>2345</ele><time>1970-01-01T00:00:00Z</time></trkpt>
<trkpt lat="46.155640" lon="7.492577"><ele>2352</ele><time>1970-01-01T00:00:00Z</time></trkpt>
<trkpt lat="46.154893" lon="7.493288"><ele>2361</ele><time>1970-01-01T00:00:00Z</time></trkpt>
<trkpt lat="46.154650" lon="7.493793"><ele>2368</ele><time>1970-01-01T00:00:00Z</time></trkpt>
<trkpt lat="46.154271" lon="7.494802"><ele>2372</ele><time>1970-01-01T00:00:00Z</time></trkpt>
<trkpt lat="46.154423" lon="7.496200"><ele>2379</ele><time>1970-01-01T00:00:00Z</time></trkpt>
<trkpt lat="46.154171" lon="7.498154"><ele>2391</ele><time>1970-01-01T00:00:00Z</time></trkpt>
<trkpt lat="46.154125" lon="7.498763"><ele>2394</ele><time>1970-01-01T00:00:00Z</time></trkpt>
<trkpt lat="46.154170" lon="7.499138"><ele>2396</ele><time>1970-01-01T00:00:00Z</time></trkpt>
<trkpt lat="46.153999" lon="7.499371"><ele>2392</ele><time>1970-01-01T00:00:00Z</time></trkpt>
<trkpt lat="46.153629" lon="7.500898"><ele>2402</ele><time>1970-01-01T00:00:00Z</time></trkpt>
<trkpt lat="46.153692" lon="7.501429"><ele>2408</ele><time>1970-01-01T00:00:00Z</time></trkpt>
<trkpt lat="46.153467" lon="7.502076"><ele>2409</ele><time>1970-01-01T00:00:00Z</time></trkpt>
<trkpt lat="46.153466" lon="7.503202"><ele>2421</ele><time>1970-01-01T00:00:00Z</time></trkpt>
<trkpt lat="46.153466" lon="7.503914"><ele>2435</ele><time>1970-01-01T00:00:00Z</time></trkpt>
<trkpt lat="46.152989" lon="7.504366"><ele>2441</ele><time>1970-01-01T00:00:00Z</time></trkpt>
<trkpt lat="46.152863" lon="7.504832"><ele>2452</ele><time>1970-01-01T00:00:00Z</time></trkpt>
<trkpt lat="46.152925" lon="7.505518"><ele>2466</ele><time>1970-01-01T00:00:00Z</time></trkpt>
<trkpt lat="46.152907" lon="7.505725"><ele>2467</ele><time>1970-01-01T00:00:00Z</time></trkpt>
<trkpt lat="46.153051" lon="7.506204"><ele>2475</ele><time>1970-01-01T00:00:00Z</time></trkpt>
<trkpt lat="46.153131" lon="7.507240"><ele>2488</ele><time>1970-01-01T00:00:00Z</time></trkpt>
<trkpt lat="46.153211" lon="7.507952"><ele>2493</ele><time>1970-01-01T00:00:00Z</time></trkpt>
<trkpt lat="46.154414" lon="7.512238"><ele>2545</ele><time>1970-01-01T00:00:00Z</time></trkpt>
<trkpt lat="46.154630" lon="7.512342"><ele>2550</ele><time>1970-01-01T00:00:00Z</time></trkpt>
<trkpt lat="46.154468" lon="7.512665"><ele>2558</ele><time>1970-01-01T00:00:00Z</time></trkpt>
<trkpt lat="46.155043" lon="7.513339"><ele>2585</ele><time>1970-01-01T00:00:00Z</time></trkpt>
<trkpt lat="46.154764" lon="7.513753"><ele>2598</ele><time>1970-01-01T00:00:00Z</time></trkpt>
<trkpt lat="46.154980" lon="7.513792"><ele>2601</ele><time>1970-01-01T00:00:00Z</time></trkpt>
<trkpt lat="46.154836" lon="7.514025"><ele>2608</ele><time>1970-01-01T00:00:00Z</time></trkpt>
<trkpt lat="46.154989" lon="7.514116"><ele>2611</ele><time>1970-01-01T00:00:00Z</time></trkpt>
<trkpt lat="46.154800" lon="7.514439"><ele>2620</ele><time>1970-01-01T00:00:00Z</time></trkpt>
<trkpt lat="46.155329" lon="7.516135"><ele>2668</ele><time>1970-01-01T00:00:00Z</time></trkpt>
<trkpt lat="46.155230" lon="7.516511"><ele>2683</ele><time>1970-01-01T00:00:00Z</time></trkpt>
<trkpt lat="46.154861" lon="7.516640"><ele>2697</ele><time>1970-01-01T00:00:00Z</time></trkpt>
<trkpt lat="46.154447" lon="7.516600"><ele>2709</ele><time>1970-01-01T00:00:00Z</time></trkpt>
<trkpt lat="46.154411" lon="7.516937"><ele>2720</ele><time>1970-01-01T00:00:00Z</time></trkpt>
<trkpt lat="46.154653" lon="7.517675"><ele>2730</ele><time>1970-01-01T00:00:00Z</time></trkpt>
<trkpt lat="46.155704" lon="7.519670"><ele>2787</ele><time>1970-01-01T00:00:00Z</time></trkpt>
<trkpt lat="46.155722" lon="7.519890"><ele>2791</ele><time>1970-01-01T00:00:00Z</time></trkpt>
<trkpt lat="46.155749" lon="7.519890"><ele>2791</ele><time>1970-01-01T00:00:00Z</time></trkpt>
<trkpt lat="46.155020" lon="7.520899"><ele>2786</ele><time>1970-01-01T00:00:00Z</time></trkpt>
<trkpt lat="46.153840" lon="7.522295"><ele>2747</ele><time>1970-01-01T00:00:00Z</time></trkpt>
<trkpt lat="46.152544" lon="7.523419"><ele>2723</ele><time>1970-01-01T00:00:00Z</time></trkpt>
<trkpt lat="46.153405" lon="7.526591"><ele>2691</ele><time>1970-01-01T00:00:00Z</time></trkpt>
<trkpt lat="46.153180" lon="7.527484"><ele>2653</ele><time>1970-01-01T00:00:00Z</time></trkpt>
<trkpt lat="46.153098" lon="7.528183"><ele>2643</ele><time>1970-01-01T00:00:00Z</time></trkpt>
<trkpt lat="46.153017" lon="7.529193"><ele>2644</ele><time>1970-01-01T00:00:00Z</time></trkpt>
<trkpt lat="46.153061" lon="7.529853"><ele>2645</ele><time>1970-01-01T00:00:00Z</time></trkpt>
<trkpt lat="46.152997" lon="7.530798"><ele>2644</ele><time>1970-01-01T00:00:00Z</time></trkpt>
<trkpt lat="46.153698" lon="7.532430"><ele>2644</ele><time>1970-01-01T00:00:00Z</time></trkpt>
<trkpt lat="46.153634" lon="7.532883"><ele>2644</ele><time>1970-01-01T00:00:00Z</time></trkpt>
<trkpt lat="46.153571" lon="7.533206"><ele>2647</ele><time>1970-01-01T00:00:00Z</time></trkpt>
<trkpt lat="46.153544" lon="7.533413"><ele>2650</ele><time>1970-01-01T00:00:00Z</time></trkpt>
<trkpt lat="46.153427" lon="7.533646"><ele>2654</ele><time>1970-01-01T00:00:00Z</time></trkpt>
<trkpt lat="46.153525" lon="7.533827"><ele>2654</ele><time>1970-01-01T00:00:00Z</time></trkpt>
<trkpt lat="46.153057" lon="7.534241"><ele>2660</ele><time>1970-01-01T00:00:00Z</time></trkpt>
<trkpt lat="46.152904" lon="7.535043"><ele>2655</ele><time>1970-01-01T00:00:00Z</time></trkpt>
<trkpt lat="46.152517" lon="7.535366"><ele>2656</ele><time>1970-01-01T00:00:00Z</time></trkpt>
<trkpt lat="46.152264" lon="7.536090"><ele>2652</ele><time>1970-01-01T00:00:00Z</time></trkpt>
<trkpt lat="46.151877" lon="7.536374"><ele>2652</ele><time>1970-01-01T00:00:00Z</time></trkpt>
<trkpt lat="46.151642" lon="7.537358"><ele>2649</ele><time>1970-01-01T00:00:00Z</time></trkpt>
<trkpt lat="46.151588" lon="7.537720"><ele>2648</ele><time>1970-01-01T00:00:00Z</time></trkpt>
<trkpt lat="46.151767" lon="7.539015"><ele>2644</ele><time>1970-01-01T00:00:00Z</time></trkpt>
<trkpt lat="46.151893" lon="7.539144"><ele>2644</ele><time>1970-01-01T00:00:00Z</time></trkpt>
<trkpt lat="46.152162" lon="7.539442"><ele>2647</ele><time>1970-01-01T00:00:00Z</time></trkpt>
<trkpt lat="46.152144" lon="7.539766"><ele>2649</ele><time>1970-01-01T00:00:00Z</time></trkpt>
<trkpt lat="46.152036" lon="7.540206"><ele>2652</ele><time>1970-01-01T00:00:00Z</time></trkpt>
<trkpt lat="46.151783" lon="7.540503"><ele>2655</ele><time>1970-01-01T00:00:00Z</time></trkpt>
<trkpt lat="46.151459" lon="7.540800"><ele>2659</ele><time>1970-01-01T00:00:00Z</time></trkpt>
<trkpt lat="46.149975" lon="7.541445"><ele>2674</ele><time>1970-01-01T00:00:00Z</time></trkpt>
<trkpt lat="46.149722" lon="7.541690"><ele>2677</ele><time>1970-01-01T00:00:00Z</time></trkpt>
<trkpt lat="46.149560" lon="7.541897"><ele>2678</ele><time>1970-01-01T00:00:00Z</time></trkpt>
<trkpt lat="46.149515" lon="7.542104"><ele>2681</ele><time>1970-01-01T00:00:00Z</time></trkpt>
<trkpt lat="46.150100" lon="7.541859"><ele>2683</ele><time>1970-01-01T00:00:00Z</time></trkpt>
<trkpt lat="46.150055" lon="7.542183"><ele>2688</ele><time>1970-01-01T00:00:00Z</time></trkpt>
<trkpt lat="46.150216" lon="7.542519"><ele>2690</ele><time>1970-01-01T00:00:00Z</time></trkpt>
<trkpt lat="46.150117" lon="7.542752"><ele>2692</ele><time>1970-01-01T00:00:00Z</time></trkpt>
<trkpt lat="46.150261" lon="7.543024"><ele>2693</ele><time>1970-01-01T00:00:00Z</time></trkpt>
<trkpt lat="46.150648" lon="7.543051"><ele>2693</ele><time>1970-01-01T00:00:00Z</time></trkpt>
<trkpt lat="46.150629" lon="7.543465"><ele>2699</ele><time>1970-01-01T00:00:00Z</time></trkpt>
<trkpt lat="46.150450" lon="7.543322"><ele>2701</ele><time>1970-01-01T00:00:00Z</time></trkpt>
<trkpt lat="46.150548" lon="7.543801"><ele>2707</ele><time>1970-01-01T00:00:00Z</time></trkpt>
<trkpt lat="46.150260" lon="7.543969"><ele>2712</ele><time>1970-01-01T00:00:00Z</time></trkpt>
<trkpt lat="46.149945" lon="7.543943"><ele>2713</ele><time>1970-01-01T00:00:00Z</time></trkpt>
<trkpt lat="46.149747" lon="7.544059"><ele>2716</ele><time>1970-01-01T00:00:00Z</time></trkpt>
<trkpt lat="46.149666" lon="7.544240"><ele>2717</ele><time>1970-01-01T00:00:00Z</time></trkpt>
<trkpt lat="46.149621" lon="7.544304"><ele>2718</ele><time>1970-01-01T00:00:00Z</time></trkpt>
<trkpt lat="46.149747" lon="7.544538"><ele>2723</ele><time>1970-01-01T00:00:00Z</time></trkpt>
<trkpt lat="46.149477" lon="7.544887"><ele>2724</ele><time>1970-01-01T00:00:00Z</time></trkpt>
<trkpt lat="46.149656" lon="7.545016"><ele>2727</ele><time>1970-01-01T00:00:00Z</time></trkpt>
<trkpt lat="46.150008" lon="7.544629"><ele>2730</ele><time>1970-01-01T00:00:00Z</time></trkpt>
<trkpt lat="46.150052" lon="7.545134"><ele>2740</ele><time>1970-01-01T00:00:00Z</time></trkpt>
<trkpt lat="46.149683" lon="7.545728"><ele>2746</ele><time>1970-01-01T00:00:00Z</time></trkpt>
<trkpt lat="46.149251" lon="7.546012"><ele>2752</ele><time>1970-01-01T00:00:00Z</time></trkpt>
<trkpt lat="46.149026" lon="7.546154"><ele>2762</ele><time>1970-01-01T00:00:00Z</time></trkpt>
<trkpt lat="46.148630" lon="7.545894"><ele>2764</ele><time>1970-01-01T00:00:00Z</time></trkpt>
<trkpt lat="46.148279" lon="7.545920"><ele>2772</ele><time>1970-01-01T00:00:00Z</time></trkpt>
<trkpt lat="46.148180" lon="7.545958"><ele>2775</ele><time>1970-01-01T00:00:00Z</time></trkpt>
<trkpt lat="46.148378" lon="7.546450"><ele>2781</ele><time>1970-01-01T00:00:00Z</time></trkpt>
<trkpt lat="46.148674" lon="7.546542"><ele>2782</ele><time>1970-01-01T00:00:00Z</time></trkpt>
<trkpt lat="46.148665" lon="7.547085"><ele>2785</ele><time>1970-01-01T00:00:00Z</time></trkpt>
<trkpt lat="46.148116" lon="7.547667"><ele>2792</ele><time>1970-01-01T00:00:00Z</time></trkpt>
<trkpt lat="46.148070" lon="7.548119"><ele>2791</ele><time>1970-01-01T00:00:00Z</time></trkpt>
<trkpt lat="46.148070" lon="7.548249"><ele>2790</ele><time>1970-01-01T00:00:00Z</time></trkpt>
<trkpt lat="46.147881" lon="7.547990"><ele>2788</ele><time>1970-01-01T00:00:00Z</time></trkpt>
<trkpt lat="46.147594" lon="7.547743"><ele>2788</ele><time>1970-01-01T00:00:00Z</time></trkpt>
<trkpt lat="46.147656" lon="7.548494"><ele>2778</ele><time>1970-01-01T00:00:00Z</time></trkpt>
<trkpt lat="46.147746" lon="7.548792"><ele>2776</ele><time>1970-01-01T00:00:00Z</time></trkpt>
<trkpt lat="46.147763" lon="7.549115"><ele>2773</ele><time>1970-01-01T00:00:00Z</time></trkpt>
<trkpt lat="46.147637" lon="7.549387"><ele>2767</ele><time>1970-01-01T00:00:00Z</time></trkpt>
<trkpt lat="46.147619" lon="7.549801"><ele>2764</ele><time>1970-01-01T00:00:00Z</time></trkpt>
<trkpt lat="46.147618" lon="7.550280"><ele>2760</ele><time>1970-01-01T00:00:00Z</time></trkpt>
<trkpt lat="46.147537" lon="7.550487"><ele>2757</ele><time>1970-01-01T00:00:00Z</time></trkpt>
<trkpt lat="46.147573" lon="7.550772"><ele>2756</ele><time>1970-01-01T00:00:00Z</time></trkpt>
<trkpt lat="46.147447" lon="7.550720"><ele>2753</ele><time>1970-01-01T00:00:00Z</time></trkpt>
<trkpt lat="46.147393" lon="7.550370"><ele>2753</ele><time>1970-01-01T00:00:00Z</time></trkpt>
<trkpt lat="46.147367" lon="7.550072"><ele>2754</ele><time>1970-01-01T00:00:00Z</time></trkpt>
<trkpt lat="46.147223" lon="7.550072"><ele>2751</ele><time>1970-01-01T00:00:00Z</time></trkpt>
<trkpt lat="46.147186" lon="7.551185"><ele>2740</ele><time>1970-01-01T00:00:00Z</time></trkpt>
<trkpt lat="46.147185" lon="7.551483"><ele>2738</ele><time>1970-01-01T00:00:00Z</time></trkpt>
<trkpt lat="46.147095" lon="7.551547"><ele>2736</ele><time>1970-01-01T00:00:00Z</time></trkpt>
<trkpt lat="46.146871" lon="7.551340"><ele>2729</ele><time>1970-01-01T00:00:00Z</time></trkpt>
<trkpt lat="46.146835" lon="7.550951"><ele>2731</ele><time>1970-01-01T00:00:00Z</time></trkpt>
<trkpt lat="46.146754" lon="7.550718"><ele>2730</ele><time>1970-01-01T00:00:00Z</time></trkpt>
<trkpt lat="46.146628" lon="7.550770"><ele>2726</ele><time>1970-01-01T00:00:00Z</time></trkpt>
<trkpt lat="46.146610" lon="7.551184"><ele>2723</ele><time>1970-01-01T00:00:00Z</time></trkpt>
<trkpt lat="46.146610" lon="7.551339"><ele>2721</ele><time>1970-01-01T00:00:00Z</time></trkpt>
<trkpt lat="46.146465" lon="7.551701"><ele>2717</ele><time>1970-01-01T00:00:00Z</time></trkpt>
<trkpt lat="46.146357" lon="7.552050"><ele>2714</ele><time>1970-01-01T00:00:00Z</time></trkpt>
<trkpt lat="46.146213" lon="7.551817"><ele>2712</ele><time>1970-01-01T00:00:00Z</time></trkpt>
<trkpt lat="46.146043" lon="7.551869"><ele>2709</ele><time>1970-01-01T00:00:00Z</time></trkpt>
<trkpt lat="46.145961" lon="7.552464"><ele>2704</ele><time>1970-01-01T00:00:00Z</time></trkpt>
<trkpt lat="46.145700" lon="7.552489"><ele>2701</ele><time>1970-01-01T00:00:00Z</time></trkpt>
<trkpt lat="46.145466" lon="7.552553"><ele>2700</ele><time>1970-01-01T00:00:00Z</time></trkpt>
<trkpt lat="46.145385" lon="7.552812"><ele>2699</ele><time>1970-01-01T00:00:00Z</time></trkpt>
<trkpt lat="46.145528" lon="7.554003"><ele>2699</ele><time>1970-01-01T00:00:00Z</time></trkpt>
<trkpt lat="46.145384" lon="7.554067"><ele>2698</ele><time>1970-01-01T00:00:00Z</time></trkpt>
<trkpt lat="46.144629" lon="7.553082"><ele>2692</ele><time>1970-01-01T00:00:00Z</time></trkpt>
<trkpt lat="46.144476" lon="7.552991"><ele>2689</ele><time>1970-01-01T00:00:00Z</time></trkpt>
<trkpt lat="46.144682" lon="7.553742"><ele>2680</ele><time>1970-01-01T00:00:00Z</time></trkpt>
<trkpt lat="46.144844" lon="7.554027"><ele>2679</ele><time>1970-01-01T00:00:00Z</time></trkpt>
<trkpt lat="46.144934" lon="7.554248"><ele>2677</ele><time>1970-01-01T00:00:00Z</time></trkpt>
<trkpt lat="46.144843" lon="7.555050"><ele>2668</ele><time>1970-01-01T00:00:00Z</time></trkpt>
<trkpt lat="46.144762" lon="7.555140"><ele>2665</ele><time>1970-01-01T00:00:00Z</time></trkpt>
<trkpt lat="46.144564" lon="7.554726"><ele>2661</ele><time>1970-01-01T00:00:00Z</time></trkpt>
<trkpt lat="46.144106" lon="7.554725"><ele>2654</ele><time>1970-01-01T00:00:00Z</time></trkpt>
<trkpt lat="46.143961" lon="7.554919"><ele>2652</ele><time>1970-01-01T00:00:00Z</time></trkpt>
<trkpt lat="46.143898" lon="7.555604"><ele>2649</ele><time>1970-01-01T00:00:00Z</time></trkpt>
<trkpt lat="46.143978" lon="7.555902"><ele>2649</ele><time>1970-01-01T00:00:00Z</time></trkpt>
<trkpt lat="46.143879" lon="7.556562"><ele>2641</ele><time>1970-01-01T00:00:00Z</time></trkpt>
<trkpt lat="46.143977" lon="7.557688"><ele>2633</ele><time>1970-01-01T00:00:00Z</time></trkpt>
<trkpt lat="46.143896" lon="7.557740"><ele>2630</ele><time>1970-01-01T00:00:00Z</time></trkpt>
<trkpt lat="46.143626" lon="7.557183"><ele>2627</ele><time>1970-01-01T00:00:00Z</time></trkpt>
<trkpt lat="46.143250" lon="7.556172"><ele>2623</ele><time>1970-01-01T00:00:00Z</time></trkpt>
<trkpt lat="46.143106" lon="7.555551"><ele>2623</ele><time>1970-01-01T00:00:00Z</time></trkpt>
<trkpt lat="46.142980" lon="7.555551"><ele>2621</ele><time>1970-01-01T00:00:00Z</time></trkpt>
<trkpt lat="46.142953" lon="7.555900"><ele>2614</ele><time>1970-01-01T00:00:00Z</time></trkpt>
<trkpt lat="46.142827" lon="7.556107"><ele>2607</ele><time>1970-01-01T00:00:00Z</time></trkpt>
<trkpt lat="46.142835" lon="7.556637"><ele>2605</ele><time>1970-01-01T00:00:00Z</time></trkpt>
<trkpt lat="46.142898" lon="7.557026"><ele>2602</ele><time>1970-01-01T00:00:00Z</time></trkpt>
<trkpt lat="46.142403" lon="7.556649"><ele>2592</ele><time>1970-01-01T00:00:00Z</time></trkpt>
<trkpt lat="46.142304" lon="7.557232"><ele>2584</ele><time>1970-01-01T00:00:00Z</time></trkpt>
<trkpt lat="46.141970" lon="7.557839"><ele>2569</ele><time>1970-01-01T00:00:00Z</time></trkpt>
<trkpt lat="46.141672" lon="7.558887"><ele>2562</ele><time>1970-01-01T00:00:00Z</time></trkpt>
<trkpt lat="46.141546" lon="7.558899"><ele>2558</ele><time>1970-01-01T00:00:00Z</time></trkpt>
<trkpt lat="46.141574" lon="7.558472"><ele>2562</ele><time>1970-01-01T00:00:00Z</time></trkpt>
<trkpt lat="46.140854" lon="7.558302"><ele>2556</ele><time>1970-01-01T00:00:00Z</time></trkpt>
<trkpt lat="46.140234" lon="7.558482"><ele>2550</ele><time>1970-01-01T00:00:00Z</time></trkpt>
<trkpt lat="46.139549" lon="7.559102"><ele>2535</ele><time>1970-01-01T00:00:00Z</time></trkpt>
<trkpt lat="46.139261" lon="7.559399"><ele>2539</ele><time>1970-01-01T00:00:00Z</time></trkpt>
<trkpt lat="46.139134" lon="7.560253"><ele>2535</ele><time>1970-01-01T00:00:00Z</time></trkpt>
<trkpt lat="46.139008" lon="7.560602"><ele>2534</ele><time>1970-01-01T00:00:00Z</time></trkpt>
<trkpt lat="46.138630" lon="7.560769"><ele>2532</ele><time>1970-01-01T00:00:00Z</time></trkpt>
<trkpt lat="46.138081" lon="7.560690"><ele>2530</ele><time>1970-01-01T00:00:00Z</time></trkpt>
<trkpt lat="46.137857" lon="7.560457"><ele>2535</ele><time>1970-01-01T00:00:00Z</time></trkpt>
<trkpt lat="46.137362" lon="7.560158"><ele>2540</ele><time>1970-01-01T00:00:00Z</time></trkpt>
<trkpt lat="46.136804" lon="7.560248"><ele>2536</ele><time>1970-01-01T00:00:00Z</time></trkpt>
<trkpt lat="46.136489" lon="7.560544"><ele>2526</ele><time>1970-01-01T00:00:00Z</time></trkpt>
<trkpt lat="46.136255" lon="7.560699"><ele>2530</ele><time>1970-01-01T00:00:00Z</time></trkpt>
<trkpt lat="46.135868" lon="7.560660"><ele>2537</ele><time>1970-01-01T00:00:00Z</time></trkpt>
<trkpt lat="46.135724" lon="7.560776"><ele>2534</ele><time>1970-01-01T00:00:00Z</time></trkpt>
<trkpt lat="46.135472" lon="7.560956"><ele>2530</ele><time>1970-01-01T00:00:00Z</time></trkpt>
<trkpt lat="46.135103" lon="7.561020"><ele>2530</ele><time>1970-01-01T00:00:00Z</time></trkpt>
<trkpt lat="46.135031" lon="7.561447"><ele>2523</ele><time>1970-01-01T00:00:00Z</time></trkpt>
<trkpt lat="46.134878" lon="7.561705"><ele>2521</ele><time>1970-01-01T00:00:00Z</time></trkpt>
<trkpt lat="46.133880" lon="7.561224"><ele>2521</ele><time>1970-01-01T00:00:00Z</time></trkpt>
<trkpt lat="46.133385" lon="7.560887"><ele>2521</ele><time>1970-01-01T00:00:00Z</time></trkpt>
<trkpt lat="46.132972" lon="7.560563"><ele>2521</ele><time>1970-01-01T00:00:00Z</time></trkpt>
<trkpt lat="46.132747" lon="7.560355"><ele>2522</ele><time>1970-01-01T00:00:00Z</time></trkpt>
<trkpt lat="46.132657" lon="7.560652"><ele>2518</ele><time>1970-01-01T00:00:00Z</time></trkpt>
<trkpt lat="46.132639" lon="7.561105"><ele>2514</ele><time>1970-01-01T00:00:00Z</time></trkpt>
<trkpt lat="46.132315" lon="7.561104"><ele>2510</ele><time>1970-01-01T00:00:00Z</time></trkpt>
<trkpt lat="46.131946" lon="7.560923"><ele>2504</ele><time>1970-01-01T00:00:00Z</time></trkpt>
<trkpt lat="46.131515" lon="7.559822"><ele>2495</ele><time>1970-01-01T00:00:00Z</time></trkpt>
<trkpt lat="46.131364" lon="7.558709"><ele>2493</ele><time>1970-01-01T00:00:00Z</time></trkpt>
<trkpt lat="46.131329" lon="7.557738"><ele>2490</ele><time>1970-01-01T00:00:00Z</time></trkpt>
<trkpt lat="46.131086" lon="7.557453"><ele>2487</ele><time>1970-01-01T00:00:00Z</time></trkpt>
<trkpt lat="46.130924" lon="7.557414"><ele>2486</ele><time>1970-01-01T00:00:00Z</time></trkpt>
<trkpt lat="46.130915" lon="7.557686"><ele>2483</ele><time>1970-01-01T00:00:00Z</time></trkpt>
<trkpt lat="46.130942" lon="7.558048"><ele>2481</ele><time>1970-01-01T00:00:00Z</time></trkpt>
<trkpt lat="46.130770" lon="7.558371"><ele>2478</ele><time>1970-01-01T00:00:00Z</time></trkpt>
<trkpt lat="46.130590" lon="7.558487"><ele>2476</ele><time>1970-01-01T00:00:00Z</time></trkpt>
<trkpt lat="46.130294" lon="7.558460"><ele>2472</ele><time>1970-01-01T00:00:00Z</time></trkpt>
<trkpt lat="46.130122" lon="7.558771"><ele>2469</ele><time>1970-01-01T00:00:00Z</time></trkpt>
<trkpt lat="46.130014" lon="7.559404"><ele>2463</ele><time>1970-01-01T00:00:00Z</time></trkpt>
<trkpt lat="46.130067" lon="7.559702"><ele>2463</ele><time>1970-01-01T00:00:00Z</time></trkpt>
<trkpt lat="46.130094" lon="7.560116"><ele>2461</ele><time>1970-01-01T00:00:00Z</time></trkpt>
<trkpt lat="46.130300" lon="7.560440"><ele>2458</ele><time>1970-01-01T00:00:00Z</time></trkpt>
<trkpt lat="46.130525" lon="7.560738"><ele>2454</ele><time>1970-01-01T00:00:00Z</time></trkpt>
<trkpt lat="46.130048" lon="7.560621"><ele>2450</ele><time>1970-01-01T00:00:00Z</time></trkpt>
<trkpt lat="46.129761" lon="7.560297"><ele>2445</ele><time>1970-01-01T00:00:00Z</time></trkpt>
<trkpt lat="46.129572" lon="7.560141"><ele>2443</ele><time>1970-01-01T00:00:00Z</time></trkpt>
<trkpt lat="46.129311" lon="7.560179"><ele>2442</ele><time>1970-01-01T00:00:00Z</time></trkpt>
<trkpt lat="46.129123" lon="7.559972"><ele>2436</ele><time>1970-01-01T00:00:00Z</time></trkpt>
<trkpt lat="46.129041" lon="7.560140"><ele>2436</ele><time>1970-01-01T00:00:00Z</time></trkpt>
<trkpt lat="46.128978" lon="7.560502"><ele>2435</ele><time>1970-01-01T00:00:00Z</time></trkpt>
<trkpt lat="46.129149" lon="7.560890"><ele>2434</ele><time>1970-01-01T00:00:00Z</time></trkpt>
<trkpt lat="46.129490" lon="7.561098"><ele>2431</ele><time>1970-01-01T00:00:00Z</time></trkpt>
<trkpt lat="46.129814" lon="7.561371"><ele>2427</ele><time>1970-01-01T00:00:00Z</time></trkpt>
<trkpt lat="46.130047" lon="7.562005"><ele>2417</ele><time>1970-01-01T00:00:00Z</time></trkpt>
<trkpt lat="46.130388" lon="7.562808"><ele>2407</ele><time>1970-01-01T00:00:00Z</time></trkpt>
<trkpt lat="46.131008" lon="7.563211"><ele>2403</ele><time>1970-01-01T00:00:00Z</time></trkpt>
<trkpt lat="46.131080" lon="7.563495"><ele>2399</ele><time>1970-01-01T00:00:00Z</time></trkpt>
<trkpt lat="46.131592" lon="7.563548"><ele>2393</ele><time>1970-01-01T00:00:00Z</time></trkpt>
<trkpt lat="46.132150" lon="7.563938"><ele>2385</ele><time>1970-01-01T00:00:00Z</time></trkpt>
<trkpt lat="46.133040" lon="7.564328"><ele>2375</ele><time>1970-01-01T00:00:00Z</time></trkpt>
<trkpt lat="46.133309" lon="7.564626"><ele>2367</ele><time>1970-01-01T00:00:00Z</time></trkpt>
<trkpt lat="46.134398" lon="7.564836"><ele>2352</ele><time>1970-01-01T00:00:00Z</time></trkpt>
<trkpt lat="46.135530" lon="7.565369"><ele>2337</ele><time>1970-01-01T00:00:00Z</time></trkpt>
<trkpt lat="46.134478" lon="7.565522"><ele>2321</ele><time>1970-01-01T00:00:00Z</time></trkpt>
<trkpt lat="46.134217" lon="7.565392"><ele>2326</ele><time>1970-01-01T00:00:00Z</time></trkpt>
<trkpt lat="46.135574" lon="7.566314"><ele>2304</ele><time>1970-01-01T00:00:00Z</time></trkpt>
<trkpt lat="46.136087" lon="7.566677"><ele>2295</ele><time>1970-01-01T00:00:00Z</time></trkpt>
<trkpt lat="46.136320" lon="7.566846"><ele>2295</ele><time>1970-01-01T00:00:00Z</time></trkpt>
<trkpt lat="46.137040" lon="7.567080"><ele>2286</ele><time>1970-01-01T00:00:00Z</time></trkpt>
<trkpt lat="46.137246" lon="7.567275"><ele>2277</ele><time>1970-01-01T00:00:00Z</time></trkpt>
<trkpt lat="46.136914" lon="7.567261"><ele>2278</ele><time>1970-01-01T00:00:00Z</time></trkpt>
<trkpt lat="46.136797" lon="7.567352"><ele>2276</ele><time>1970-01-01T00:00:00Z</time></trkpt>
<trkpt lat="46.137318" lon="7.567534"><ele>2264</ele><time>1970-01-01T00:00:00Z</time></trkpt>
<trkpt lat="46.137768" lon="7.567263"><ele>2260</ele><time>1970-01-01T00:00:00Z</time></trkpt>
<trkpt lat="46.138146" lon="7.567148"><ele>2255</ele><time>1970-01-01T00:00:00Z</time></trkpt>
<trkpt lat="46.138227" lon="7.567187"><ele>2254</ele><time>1970-01-01T00:00:00Z</time></trkpt>
<trkpt lat="46.137939" lon="7.567393"><ele>2249</ele><time>1970-01-01T00:00:00Z</time></trkpt>
<trkpt lat="46.138191" lon="7.567458"><ele>2251</ele><time>1970-01-01T00:00:00Z</time></trkpt>
<trkpt lat="46.138344" lon="7.567239"><ele>2250</ele><time>1970-01-01T00:00:00Z</time></trkpt>
<trkpt lat="46.138488" lon="7.567006"><ele>2249</ele><time>1970-01-01T00:00:00Z</time></trkpt>
<trkpt lat="46.139136" lon="7.567189"><ele>2226</ele><time>1970-01-01T00:00:00Z</time></trkpt>
<trkpt lat="46.139316" lon="7.567008"><ele>2232</ele><time>1970-01-01T00:00:00Z</time></trkpt>
<trkpt lat="46.139837" lon="7.567281"><ele>2217</ele><time>1970-01-01T00:00:00Z</time></trkpt>
<trkpt lat="46.140215" lon="7.567334"><ele>2207</ele><time>1970-01-01T00:00:00Z</time></trkpt>
<trkpt lat="46.140350" lon="7.567205"><ele>2208</ele><time>1970-01-01T00:00:00Z</time></trkpt>
<trkpt lat="46.140503" lon="7.567231"><ele>2206</ele><time>1970-01-01T00:00:00Z</time></trkpt>
<trkpt lat="46.140359" lon="7.567464"><ele>2198</ele><time>1970-01-01T00:00:00Z</time></trkpt>
<trkpt lat="46.139953" lon="7.567747"><ele>2193</ele><time>1970-01-01T00:00:00Z</time></trkpt>
<trkpt lat="46.139666" lon="7.567734"><ele>2192</ele><time>1970-01-01T00:00:00Z</time></trkpt>
<trkpt lat="46.139549" lon="7.567902"><ele>2184</ele><time>1970-01-01T00:00:00Z</time></trkpt>
<trkpt lat="46.139872" lon="7.567928"><ele>2186</ele><time>1970-01-01T00:00:00Z</time></trkpt>
<trkpt lat="46.140133" lon="7.567994"><ele>2181</ele><time>1970-01-01T00:00:00Z</time></trkpt>
<trkpt lat="46.140367" lon="7.567839"><ele>2180</ele><time>1970-01-01T00:00:00Z</time></trkpt>
<trkpt lat="46.140493" lon="7.567878"><ele>2177</ele><time>1970-01-01T00:00:00Z</time></trkpt>
<trkpt lat="46.140223" lon="7.568162"><ele>2172</ele><time>1970-01-01T00:00:00Z</time></trkpt>
<trkpt lat="46.139746" lon="7.568200"><ele>2172</ele><time>1970-01-01T00:00:00Z</time></trkpt>
<trkpt lat="46.139728" lon="7.568368"><ele>2168</ele><time>1970-01-01T00:00:00Z</time></trkpt>
<trkpt lat="46.139953" lon="7.568537"><ele>2163</ele><time>1970-01-01T00:00:00Z</time></trkpt>
<trkpt lat="46.140330" lon="7.568551"><ele>2155</ele><time>1970-01-01T00:00:00Z</time></trkpt>
<trkpt lat="46.139808" lon="7.568782"><ele>2151</ele><time>1970-01-01T00:00:00Z</time></trkpt>
<trkpt lat="46.139538" lon="7.568885"><ele>2146</ele><time>1970-01-01T00:00:00Z</time></trkpt>
<trkpt lat="46.139296" lon="7.568729"><ele>2147</ele><time>1970-01-01T00:00:00Z</time></trkpt>
<trkpt lat="46.139026" lon="7.568871"><ele>2143</ele><time>1970-01-01T00:00:00Z</time></trkpt>
<trkpt lat="46.138801" lon="7.569052"><ele>2140</ele><time>1970-01-01T00:00:00Z</time></trkpt>
<trkpt lat="46.138845" lon="7.569168"><ele>2140</ele><time>1970-01-01T00:00:00Z</time></trkpt>
<trkpt lat="46.139007" lon="7.569207"><ele>2139</ele><time>1970-01-01T00:00:00Z</time></trkpt>
<trkpt lat="46.139187" lon="7.569415"><ele>2135</ele><time>1970-01-01T00:00:00Z</time></trkpt>
<trkpt lat="46.139070" lon="7.569673"><ele>2130</ele><time>1970-01-01T00:00:00Z</time></trkpt>
<trkpt lat="46.138845" lon="7.569854"><ele>2129</ele><time>1970-01-01T00:00:00Z</time></trkpt>
<trkpt lat="46.138611" lon="7.569853"><ele>2132</ele><time>1970-01-01T00:00:00Z</time></trkpt>
<trkpt lat="46.138305" lon="7.569879"><ele>2135</ele><time>1970-01-01T00:00:00Z</time></trkpt>
<trkpt lat="46.138224" lon="7.569995"><ele>2132</ele><time>1970-01-01T00:00:00Z</time></trkpt>
<trkpt lat="46.138197" lon="7.570176"><ele>2129</ele><time>1970-01-01T00:00:00Z</time></trkpt>
<trkpt lat="46.137567" lon="7.570123"><ele>2126</ele><time>1970-01-01T00:00:00Z</time></trkpt>
<trkpt lat="46.138258" lon="7.571612"><ele>2139</ele><time>1970-01-01T00:00:00Z</time></trkpt>
<trkpt lat="46.138906" lon="7.571135"><ele>2114</ele><time>1970-01-01T00:00:00Z</time></trkpt>
<trkpt lat="46.139050" lon="7.570954"><ele>2111</ele><time>1970-01-01T00:00:00Z</time></trkpt>
<trkpt lat="46.139114" lon="7.570579"><ele>2108</ele><time>1970-01-01T00:00:00Z</time></trkpt>
<trkpt lat="46.139276" lon="7.570424"><ele>2109</ele><time>1970-01-01T00:00:00Z</time></trkpt>
<trkpt lat="46.139402" lon="7.570334"><ele>2111</ele><time>1970-01-01T00:00:00Z</time></trkpt>
<trkpt lat="46.139897" lon="7.570361"><ele>2108</ele><time>1970-01-01T00:00:00Z</time></trkpt>
<trkpt lat="46.140085" lon="7.570543"><ele>2105</ele><time>1970-01-01T00:00:00Z</time></trkpt>
<trkpt lat="46.140292" lon="7.570686"><ele>2100</ele><time>1970-01-01T00:00:00Z</time></trkpt>
<trkpt lat="46.140930" lon="7.570843"><ele>2100</ele><time>1970-01-01T00:00:00Z</time></trkpt>
<trkpt lat="46.141308" lon="7.571167"><ele>2104</ele><time>1970-01-01T00:00:00Z</time></trkpt>
<trkpt lat="46.142855" lon="7.571546"><ele>2089</ele><time>1970-01-01T00:00:00Z</time></trkpt>
<trkpt lat="46.143404" lon="7.571043"><ele>2077</ele><time>1970-01-01T00:00:00Z</time></trkpt>
<trkpt lat="46.144034" lon="7.570954"><ele>2074</ele><time>1970-01-01T00:00:00Z</time></trkpt>
<trkpt lat="46.144493" lon="7.570838"><ele>2072</ele><time>1970-01-01T00:00:00Z</time></trkpt>
<trkpt lat="46.145276" lon="7.570517"><ele>2056</ele><time>1970-01-01T00:00:00Z</time></trkpt>
<trkpt lat="46.145671" lon="7.570582"><ele>2058</ele><time>1970-01-01T00:00:00Z</time></trkpt>
<trkpt lat="46.146121" lon="7.570648"><ele>2061</ele><time>1970-01-01T00:00:00Z</time></trkpt>
<trkpt lat="46.146589" lon="7.570429"><ele>2054</ele><time>1970-01-01T00:00:00Z</time></trkpt>
<trkpt lat="46.147327" lon="7.570521"><ele>2058</ele><time>1970-01-01T00:00:00Z</time></trkpt>
<trkpt lat="46.148028" lon="7.570523"><ele>2073</ele><time>1970-01-01T00:00:00Z</time></trkpt>
<trkpt lat="46.148299" lon="7.570110"><ele>2036</ele><time>1970-01-01T00:00:00Z</time></trkpt>
<trkpt lat="46.148379" lon="7.570446"><ele>2053</ele><time>1970-01-01T00:00:00Z</time></trkpt>
<trkpt lat="46.148507" lon="7.569127"><ele>2014</ele><time>1970-01-01T00:00:00Z</time></trkpt>
<trkpt lat="46.148921" lon="7.569076"><ele>2010</ele><time>1970-01-01T00:00:00Z</time></trkpt>
<trkpt lat="46.149128" lon="7.568856"><ele>2008</ele><time>1970-01-01T00:00:00Z</time></trkpt>
<trkpt lat="46.149335" lon="7.568546"><ele>2006</ele><time>1970-01-01T00:00:00Z</time></trkpt>
<trkpt lat="46.149578" lon="7.568417"><ele>2004</ele><time>1970-01-01T00:00:00Z</time></trkpt>
<trkpt lat="46.149992" lon="7.568431"><ele>2003</ele><time>1970-01-01T00:00:00Z</time></trkpt>
<trkpt lat="46.150397" lon="7.568419"><ele>2001</ele><time>1970-01-01T00:00:00Z</time></trkpt>
<trkpt lat="46.150883" lon="7.568213"><ele>1999</ele><time>1970-01-01T00:00:00Z</time></trkpt>
<trkpt lat="46.151143" lon="7.568214"><ele>1998</ele><time>1970-01-01T00:00:00Z</time></trkpt>
<trkpt lat="46.151026" lon="7.568511"><ele>1999</ele><time>1970-01-01T00:00:00Z</time></trkpt>
<trkpt lat="46.151764" lon="7.568578"><ele>1998</ele><time>1970-01-01T00:00:00Z</time></trkpt>
<trkpt lat="46.152034" lon="7.568371"><ele>1995</ele><time>1970-01-01T00:00:00Z</time></trkpt>
<trkpt lat="46.152565" lon="7.568373"><ele>1992</ele><time>1970-01-01T00:00:00Z</time></trkpt>
<trkpt lat="46.152879" lon="7.568373"><ele>1990</ele><time>1970-01-01T00:00:00Z</time></trkpt>
<trkpt lat="46.153203" lon="7.568335"><ele>1990</ele><time>1970-01-01T00:00:00Z</time></trkpt>
<trkpt lat="46.153455" lon="7.568129"><ele>1989</ele><time>1970-01-01T00:00:00Z</time></trkpt>
<trkpt lat="46.153698" lon="7.568013"><ele>1989</ele><time>1970-01-01T00:00:00Z</time></trkpt>
<trkpt lat="46.153851" lon="7.567923"><ele>1988</ele><time>1970-01-01T00:00:00Z</time></trkpt>
<trkpt lat="46.154094" lon="7.567871"><ele>1988</ele><time>1970-01-01T00:00:00Z</time></trkpt>
<trkpt lat="46.154193" lon="7.567846"><ele>1988</ele><time>1970-01-01T00:00:00Z</time></trkpt>
<trkpt lat="46.154320" lon="7.567626"><ele>1987</ele><time>1970-01-01T00:00:00Z</time></trkpt>
<trkpt lat="46.154752" lon="7.567316"><ele>1986</ele><time>1970-01-01T00:00:00Z</time></trkpt>
<trkpt lat="46.155040" lon="7.567071"><ele>1983</ele><time>1970-01-01T00:00:00Z</time></trkpt>
<trkpt lat="46.154977" lon="7.566747"><ele>1982</ele><time>1970-01-01T00:00:00Z</time></trkpt>
<trkpt lat="46.155274" lon="7.566347"><ele>1975</ele><time>1970-01-01T00:00:00Z</time></trkpt>
<trkpt lat="46.155599" lon="7.565739"><ele>1973</ele><time>1970-01-01T00:00:00Z</time></trkpt>
<trkpt lat="46.155851" lon="7.565351"><ele>1975</ele><time>1970-01-01T00:00:00Z</time></trkpt>
<trkpt lat="46.156068" lon="7.565054"><ele>1973</ele><time>1970-01-01T00:00:00Z</time></trkpt>
<trkpt lat="46.156293" lon="7.564718"><ele>1973</ele><time>1970-01-01T00:00:00Z</time></trkpt>
<trkpt lat="46.156635" lon="7.564835"><ele>1954</ele><time>1970-01-01T00:00:00Z</time></trkpt>
<trkpt lat="46.158976" lon="7.562653"><ele>1884</ele><time>1970-01-01T00:00:00Z</time></trkpt>
<trkpt lat="46.159291" lon="7.562304"><ele>1879</ele><time>1970-01-01T00:00:00Z</time></trkpt>
<trkpt lat="46.159489" lon="7.562188"><ele>1875</ele><time>1970-01-01T00:00:00Z</time></trkpt>
<trkpt lat="46.159534" lon="7.562395"><ele>1868</ele><time>1970-01-01T00:00:00Z</time></trkpt>
<trkpt lat="46.159299" lon="7.562757"><ele>1865</ele><time>1970-01-01T00:00:00Z</time></trkpt>
<trkpt lat="46.159326" lon="7.562990"><ele>1860</ele><time>1970-01-01T00:00:00Z</time></trkpt>
<trkpt lat="46.159722" lon="7.562655"><ele>1854</ele><time>1970-01-01T00:00:00Z</time></trkpt>
<trkpt lat="46.159839" lon="7.562759"><ele>1848</ele><time>1970-01-01T00:00:00Z</time></trkpt>
<trkpt lat="46.159578" lon="7.563315"><ele>1842</ele><time>1970-01-01T00:00:00Z</time></trkpt>
<trkpt lat="46.159623" lon="7.563392"><ele>1839</ele><time>1970-01-01T00:00:00Z</time></trkpt>
<trkpt lat="46.159866" lon="7.563108"><ele>1839</ele><time>1970-01-01T00:00:00Z</time></trkpt>
<trkpt lat="46.160046" lon="7.563160"><ele>1833</ele><time>1970-01-01T00:00:00Z</time></trkpt>
<trkpt lat="46.159964" lon="7.563419"><ele>1829</ele><time>1970-01-01T00:00:00Z</time></trkpt>
<trkpt lat="46.159712" lon="7.563910"><ele>1823</ele><time>1970-01-01T00:00:00Z</time></trkpt>
<trkpt lat="46.159919" lon="7.563911"><ele>1819</ele><time>1970-01-01T00:00:00Z</time></trkpt>
<trkpt lat="46.160378" lon="7.563731"><ele>1810</ele><time>1970-01-01T00:00:00Z</time></trkpt>
<trkpt lat="46.159999" lon="7.564701"><ele>1795</ele><time>1970-01-01T00:00:00Z</time></trkpt>
<trkpt lat="46.159836" lon="7.565309"><ele>1791</ele><time>1970-01-01T00:00:00Z</time></trkpt>
<trkpt lat="46.159674" lon="7.565723"><ele>1813</ele><time>1970-01-01T00:00:00Z</time></trkpt>
<trkpt lat="46.159881" lon="7.565956"><ele>1814</ele><time>1970-01-01T00:00:00Z</time></trkpt>
<trkpt lat="46.160240" lon="7.566099"><ele>1792</ele><time>1970-01-01T00:00:00Z</time></trkpt>
<trkpt lat="46.161239" lon="7.566218"><ele>1763</ele><time>1970-01-01T00:00:00Z</time></trkpt>
<trkpt lat="46.162210" lon="7.566350"><ele>1743</ele><time>1970-01-01T00:00:00Z</time></trkpt>
<trkpt lat="46.162525" lon="7.566493"><ele>1738</ele><time>1970-01-01T00:00:00Z</time></trkpt>
<trkpt lat="46.162893" lon="7.566649"><ele>1734</ele><time>1970-01-01T00:00:00Z</time></trkpt>
<trkpt lat="46.163451" lon="7.566586"><ele>1724</ele><time>1970-01-01T00:00:00Z</time></trkpt>
<trkpt lat="46.163775" lon="7.566522"><ele>1718</ele><time>1970-01-01T00:00:00Z</time></trkpt>
<trkpt lat="46.164972" lon="7.566447"><ele>1696</ele><time>1970-01-01T00:00:00Z</time></trkpt>
<trkpt lat="46.165430" lon="7.566772"><ele>1691</ele><time>1970-01-01T00:00:00Z</time></trkpt>
<trkpt lat="46.165655" lon="7.566734"><ele>1685</ele><time>1970-01-01T00:00:00Z</time></trkpt>
<trkpt lat="46.165925" lon="7.566954"><ele>1683</ele><time>1970-01-01T00:00:00Z</time></trkpt>
<trkpt lat="46.166725" lon="7.567280"><ele>1669</ele><time>1970-01-01T00:00:00Z</time></trkpt>
<trkpt lat="46.167623" lon="7.568318"><ele>1659</ele><time>1970-01-01T00:00:00Z</time></trkpt>
<trkpt lat="46.168738" lon="7.569214"><ele>1625</ele><time>1970-01-01T00:00:00Z</time></trkpt>
<trkpt lat="46.169259" lon="7.569396"><ele>1610</ele><time>1970-01-01T00:00:00Z</time></trkpt>
<trkpt lat="46.169691" lon="7.569384"><ele>1603</ele><time>1970-01-01T00:00:00Z</time></trkpt>
<trkpt lat="46.171677" lon="7.571189"><ele>1584</ele><time>1970-01-01T00:00:00Z</time></trkpt>
</trkseg></trk></gpx>